Time,TemperatureF,DewpointF,PressureIn,WindDirection,WindDirectionDegrees,WindSpeedMPH,WindSpeedGustMPH,Humidity,HourlyPrecipIn,Conditions,Clouds,dailyrainin,SoftwareType,DateUTC
2013-03-25 00:00:00,34.9,26.4,29.78,ESE,108,5.0,5.0,71,0.00,,,0.00,Wunderground v.1.15,2013-03-25 04:00:00,
2013-03-25 00:01:00,34.9,26.4,29.78,NE,51,4.0,8.0,71,0.00,,,0.00,Wunderground v.1.15,2013-03-25 04:01:00,
2013-03-25 00:05:00,34.9,26.4,29.78,East,82,4.0,8.0,71,0.00,,,0.00,Wunderground v.1.15,2013-03-25 04:05:00,
2013-03-25 00:08:00,34.9,26.4,29.78,NE,51,5.0,8.0,71,0.00,,,0.00,Wunderground v.1.15,2013-03-25 04:08:00,
2013-03-25 00:10:00,34.9,26.4,29.78,ENE,75,4.0,4.0,71,0.00,,,0.00,Wunderground v.1.15,2013-03-25 04:10:00,
2013-03-25 00:11:00,34.9,26.4,29.78,North,1,4.0,4.0,71,0.00,,,0.00,Wunderground v.1.15,2013-03-25 04:11:00,
2013-03-25 00:15:00,34.8,26.4,29.78,East,89,4.0,6.0,71,0.00,,,0.00,Wunderground v.1.15,2013-03-25 04:15:00,
2013-03-25 00:16:00,34.8,26.4,29.78,NE,55,4.0,6.0,71,0.00,,,0.00,Wunderground v.1.15,2013-03-25 04:16:00,
2013-03-25 00:17:00,34.8,26.4,29.78,ENE,57,4.0,11.0,71,0.00,,,0.00,Wunderground v.1.15,2013-03-25 04:17:00,
2013-03-25 00:21:00,34.8,26.7,29.77,West,264,4.0,10.0,72,0.00,,,0.00,Wunderground v.1.15,2013-03-25 04:21:00,
2013-03-25 00:22:00,34.8,26.7,29.77,ENE,72,4.0,10.0,72,0.00,,,0.00,Wunderground v.1.15,2013-03-25 04:22:00,
2013-03-25 00:25:00,34.8,26.7,29.77,ENE,65,4.0,10.0,72,0.00,,,0.00,Wunderground v.1.15,2013-03-25 04:25:00,
2013-03-25 00:27:00,34.8,26.7,29.77,NE,48,4.0,10.0,72,0.00,,,0.00,Wunderground v.1.15,2013-03-25 04:27:00,
2013-03-25 00:28:00,34.8,26.7,29.77,ENE,68,4.0,10.0,72,0.00,,,0.00,Wunderground v.1.15,2013-03-25 04:28:00,
2013-03-25 00:30:00,34.8,27.0,29.77,East,79,4.0,4.0,73,0.00,,,0.00,Wunderground v.1.15,2013-03-25 04:30:00,
2013-03-25 00:33:00,34.7,26.9,29.77,NE,52,3.0,7.0,73,0.00,,,0.00,Wunderground v.1.15,2013-03-25 04:33:00,
2013-03-25 00:35:00,34.7,26.9,29.77,East,93,3.0,10.0,73,0.00,,,0.00,Wunderground v.1.15,2013-03-25 04:35:00,
2013-03-25 00:38:00,34.7,26.9,29.77,East,82,4.0,10.0,73,0.00,,,0.00,Wunderground v.1.15,2013-03-25 04:38:00,
2013-03-25 00:39:00,34.7,26.9,29.77,ENE,66,4.0,10.0,73,0.00,,,0.00,Wunderground v.1.15,2013-03-25 04:39:00,
2013-03-25 00:41:00,34.7,26.9,29.77,ENE,71,3.0,3.0,73,0.00,,,0.00,Wunderground v.1.15,2013-03-25 04:41:00,
2013-03-25 00:43:00,34.6,26.8,29.77,NE,53,3.0,6.0,73,0.00,,,0.00,Wunderground v.1.15,2013-03-25 04:43:00,
2013-03-25 00:45:00,34.6,26.8,29.77,NE,48,4.0,6.0,73,0.00,,,0.00,Wunderground v.1.15,2013-03-25 04:45:00,
2013-03-25 00:47:00,34.6,26.8,29.76,ENE,77,3.0,6.0,73,0.00,,,0.00,Wunderground v.1.15,2013-03-25 04:47:00,
2013-03-25 00:49:00,34.6,26.8,29.76,ENE,73,4.0,6.0,73,0.00,,,0.00,Wunderground v.1.15,2013-03-25 04:49:00,
2013-03-25 00:50:00,34.6,27.2,29.76,ENE,71,4.0,4.0,74,0.00,,,0.00,Wunderground v.1.15,2013-03-25 04:50:00,
2013-03-25 00:52:00,34.6,27.2,29.76,ESE,115,4.0,6.0,74,0.00,,,0.00,Wunderground v.1.15,2013-03-25 04:52:00,
2013-03-25 00:54:00,34.6,27.2,29.76,NE,49,4.0,6.0,74,0.00,,,0.00,Wunderground v.1.15,2013-03-25 04:54:00,
2013-03-25 00:55:00,34.5,27.1,29.76,ESE,110,4.0,6.0,74,0.00,,,0.00,Wunderground v.1.15,2013-03-25 04:55:00,
2013-03-25 00:58:00,34.5,27.1,29.76,ENE,65,5.0,11.0,74,0.00,,,0.00,Wunderground v.1.15,2013-03-25 04:58:00,
2013-03-25 01:00:00,34.5,27.1,29.75,NE,45,5.0,5.0,74,0.00,,,0.00,Wunderground v.1.15,2013-03-25 05:00:00,
2013-03-25 01:01:00,34.5,27.1,29.75,East,90,5.0,5.0,74,0.00,,,0.00,Wunderground v.1.15,2013-03-25 05:01:00,
2013-03-25 01:02:00,34.5,27.4,29.75,ENE,57,4.0,5.0,75,0.00,,,0.00,Wunderground v.1.15,2013-03-25 05:02:00,
2013-03-25 01:04:00,34.5,27.1,29.75,NE,46,4.0,7.0,74,0.00,,,0.00,Wunderground v.1.15,2013-03-25 05:04:00,
2013-03-25 01:07:00,34.4,27.0,29.75,East,90,4.0,10.0,74,0.00,,,0.00,Wunderground v.1.15,2013-03-25 05:07:00,
2013-03-25 01:09:00,34.5,27.1,29.75,SE,138,4.0,10.0,74,0.00,,,0.00,Wunderground v.1.15,2013-03-25 05:09:00,
2013-03-25 01:11:00,34.5,27.1,29.75,WNW,301,5.0,8.0,74,0.00,,,0.00,Wunderground v.1.15,2013-03-25 05:11:00,
2013-03-25 01:12:00,34.5,27.1,29.75,East,86,5.0,8.0,74,0.00,,,0.00,Wunderground v.1.15,2013-03-25 05:12:00,
2013-03-25 01:14:00,34.4,27.0,29.75,NNW,335,5.0,8.0,74,0.00,,,0.00,Wunderground v.1.15,2013-03-25 05:14:00,
2013-03-25 01:17:00,34.4,27.0,29.75,East,100,4.0,8.0,74,0.00,,,0.00,Wunderground v.1.15,2013-03-25 05:17:00,
2013-03-25 01:18:00,34.4,27.0,29.75,East,82,3.0,8.0,74,0.00,,,0.00,Wunderground v.1.15,2013-03-25 05:18:00,
2013-03-25 01:20:00,34.4,27.3,29.75,ENE,75,3.0,4.0,75,0.00,,,0.00,Wunderground v.1.15,2013-03-25 05:20:00,
2013-03-25 01:22:00,34.3,27.2,29.74,ENE,73,3.0,8.0,75,0.00,,,0.00,Wunderground v.1.15,2013-03-25 05:22:00,
2013-03-25 01:23:00,34.4,27.3,29.74,ENE,70,3.0,8.0,75,0.00,,,0.00,Wunderground v.1.15,2013-03-25 05:23:00,
2013-03-25 01:25:00,34.4,27.3,29.74,NE,54,4.0,8.0,75,0.00,,,0.00,Wunderground v.1.15,2013-03-25 05:25:00,
2013-03-25 01:27:00,34.3,27.2,29.74,ENE,57,4.0,8.0,75,0.00,,,0.00,Wunderground v.1.15,2013-03-25 05:27:00,
2013-03-25 01:28:00,34.3,27.2,29.74,ENE,75,5.0,8.0,75,0.00,,,0.00,Wunderground v.1.15,2013-03-25 05:28:00,
2013-03-25 01:32:00,34.3,27.2,29.74,ESE,104,5.0,6.0,75,0.00,,,0.00,Wunderground v.1.15,2013-03-25 05:32:00,
2013-03-25 01:33:00,34.3,27.2,29.74,ENE,68,5.0,6.0,75,0.00,,,0.00,Wunderground v.1.15,2013-03-25 05:33:00,
2013-03-25 01:35:00,34.3,27.2,29.74,ENE,71,5.0,6.0,75,0.00,,,0.00,Wunderground v.1.15,2013-03-25 05:35:00,
2013-03-25 01:36:00,34.3,27.2,29.74,ENE,76,5.0,6.0,75,0.00,,,0.00,Wunderground v.1.15,2013-03-25 05:36:00,
2013-03-25 01:39:00,34.2,27.1,29.74,ESE,117,4.0,8.0,75,0.00,,,0.00,Wunderground v.1.15,2013-03-25 05:39:00,
2013-03-25 01:41:00,34.3,27.2,29.74,NE,37,3.0,4.0,75,0.00,,,0.00,Wunderground v.1.15,2013-03-25 05:41:00,
2013-03-25 01:44:00,34.3,27.2,29.74,ESE,120,4.0,6.0,75,0.00,,,0.00,Wunderground v.1.15,2013-03-25 05:44:00,
2013-03-25 01:45:00,34.3,27.2,29.74,ESE,111,4.0,6.0,75,0.00,,,0.00,Wunderground v.1.15,2013-03-25 05:45:00,
2013-03-25 01:47:00,34.3,27.2,29.74,West,274,4.0,6.0,75,0.00,,,0.00,Wunderground v.1.15,2013-03-25 05:47:00,
2013-03-25 01:48:00,34.3,27.2,29.74,ENE,64,4.0,6.0,75,0.00,,,0.00,Wunderground v.1.15,2013-03-25 05:48:00,
2013-03-25 01:50:00,34.2,27.1,29.75,NE,51,3.0,3.0,75,0.00,,,0.00,Wunderground v.1.15,2013-03-25 05:50:00,
2013-03-25 01:53:00,34.2,27.4,29.75,ENE,65,3.0,5.0,76,0.00,,,0.00,Wunderground v.1.15,2013-03-25 05:53:00,
2013-03-25 01:54:00,34.2,27.4,29.75,East,90,2.0,5.0,76,0.00,,,0.00,Wunderground v.1.15,2013-03-25 05:54:00,
2013-03-25 01:55:00,34.2,27.4,29.75,ENE,69,2.0,5.0,76,0.00,,,0.00,Wunderground v.1.15,2013-03-25 05:55:00,
2013-03-25 01:59:00,34.1,27.6,29.75,East,94,2.0,5.0,77,0.00,,,0.00,Wunderground v.1.15,2013-03-25 05:59:00,
2013-03-25 02:00:00,34.1,27.6,29.74,East,97,3.0,4.0,77,0.00,,,0.00,Wunderground v.1.15,2013-03-25 06:00:00,
2013-03-25 02:01:00,34.1,27.6,29.74,SE,127,3.0,4.0,77,0.00,,,0.00,Wunderground v.1.15,2013-03-25 06:01:00,
2013-03-25 02:02:00,34.1,27.6,29.74,East,82,3.0,4.0,77,0.00,,,0.00,Wunderground v.1.15,2013-03-25 06:02:00,
2013-03-25 02:05:00,34.0,27.5,29.74,ENE,67,3.0,4.0,77,0.00,,,0.00,Wunderground v.1.15,2013-03-25 06:05:00,
2013-03-25 02:06:00,34.0,27.5,29.74,SSE,165,3.0,4.0,77,0.00,,,0.00,Wunderground v.1.15,2013-03-25 06:06:00,
2013-03-25 02:07:00,34.0,27.5,29.74,ENE,61,3.0,4.0,77,0.00,,,0.00,Wunderground v.1.15,2013-03-25 06:07:00,
2013-03-25 02:11:00,33.9,27.8,29.74,NNE,29,3.0,4.0,78,0.00,,,0.00,Wunderground v.1.15,2013-03-25 06:11:00,
2013-03-25 02:12:00,33.9,27.8,29.74,ENE,73,3.0,4.0,78,0.00,,,0.00,Wunderground v.1.15,2013-03-25 06:12:00,
2013-03-25 02:13:00,33.9,27.8,29.74,NE,52,3.0,6.0,78,0.00,,,0.00,Wunderground v.1.15,2013-03-25 06:13:00,
2013-03-25 02:17:00,33.9,27.8,29.74,East,93,3.0,6.0,78,0.00,,,0.00,Wunderground v.1.15,2013-03-25 06:17:00,
2013-03-25 02:18:00,33.9,27.8,29.74,NNE,30,3.0,6.0,78,0.00,,,0.00,Wunderground v.1.15,2013-03-25 06:18:00,
2013-03-25 02:19:00,33.9,27.8,29.74,ENE,62,3.0,6.0,78,0.00,,,0.00,Wunderground v.1.15,2013-03-25 06:19:00,
2013-03-25 02:20:00,33.9,27.8,29.74,ENE,76,3.0,3.0,78,0.00,,,0.00,Wunderground v.1.15,2013-03-25 06:20:00,
2013-03-25 02:23:00,33.9,27.8,29.73,NE,53,4.0,5.0,78,0.00,,,0.00,Wunderground v.1.15,2013-03-25 06:23:00,
2013-03-25 02:25:00,33.9,27.8,29.74,ENE,77,4.0,5.0,78,0.00,,,0.00,Wunderground v.1.15,2013-03-25 06:25:00,
2013-03-25 02:26:00,33.9,27.8,29.73,NE,43,4.0,6.0,78,0.00,,,0.00,Wunderground v.1.15,2013-03-25 06:26:00,
2013-03-25 02:27:00,33.9,27.8,29.73,East,82,4.0,6.0,78,0.00,,,0.00,Wunderground v.1.15,2013-03-25 06:27:00,
2013-03-25 02:30:00,33.9,27.8,29.73,NE,52,4.0,4.0,78,0.00,,,0.00,Wunderground v.1.15,2013-03-25 06:30:00,
2013-03-25 02:32:00,33.9,27.8,29.73,ENE,71,4.0,4.0,78,0.00,,,0.00,Wunderground v.1.15,2013-03-25 06:32:00,
2013-03-25 02:33:00,33.9,27.8,29.73,NE,38,4.0,5.0,78,0.00,,,0.00,Wunderground v.1.15,2013-03-25 06:33:00,
2013-03-25 02:36:00,33.9,27.8,29.73,East,96,4.0,5.0,78,0.00,,,0.00,Wunderground v.1.15,2013-03-25 06:36:00,
2013-03-25 02:37:00,33.9,27.8,29.73,East,82,4.0,5.0,78,0.00,,,0.00,Wunderground v.1.15,2013-03-25 06:37:00,
2013-03-25 02:39:00,33.9,27.8,29.73,ENE,76,4.0,5.0,78,0.00,,,0.00,Wunderground v.1.15,2013-03-25 06:39:00,
2013-03-25 02:40:00,33.9,27.8,29.73,NE,53,4.0,5.0,78,0.00,,,0.00,Wunderground v.1.15,2013-03-25 06:40:00,
2013-03-25 02:42:00,33.9,27.8,29.73,ENE,67,4.0,5.0,78,0.00,,,0.00,Wunderground v.1.15,2013-03-25 06:42:00,
2013-03-25 02:43:00,33.9,27.8,29.73,ENE,69,4.0,7.0,78,0.00,,,0.00,Wunderground v.1.15,2013-03-25 06:43:00,
2013-03-25 02:48:00,33.8,27.7,29.73,East,94,3.0,7.0,78,0.00,,,0.00,Wunderground v.1.15,2013-03-25 06:48:00,
2013-03-25 02:49:00,33.8,27.7,29.73,ENE,68,3.0,7.0,78,0.00,,,0.00,Wunderground v.1.15,2013-03-25 06:49:00,
2013-03-25 02:50:00,33.8,28.0,29.73,East,94,3.0,3.0,79,0.00,,,0.00,Wunderground v.1.15,2013-03-25 06:50:00,
2013-03-25 02:52:00,33.8,28.0,29.73,NNE,24,3.0,8.0,79,0.00,,,0.00,Wunderground v.1.15,2013-03-25 06:52:00,
2013-03-25 02:55:00,33.8,27.7,29.73,NE,54,3.0,8.0,78,0.00,,,0.00,Wunderground v.1.15,2013-03-25 06:55:00,
2013-03-25 02:56:00,33.9,27.8,29.73,ENE,63,4.0,9.0,78,0.00,,,0.00,Wunderground v.1.15,2013-03-25 06:56:00,
2013-03-25 02:57:00,33.9,27.8,29.73,ENE,76,4.0,9.0,78,0.00,,,0.00,Wunderground v.1.15,2013-03-25 06:57:00,
2013-03-25 03:00:00,33.8,28.0,29.73,NE,45,4.0,6.0,79,0.00,,,0.00,Wunderground v.1.15,2013-03-25 07:00:00,
2013-03-25 03:02:00,33.8,28.0,29.72,ENE,57,5.0,6.0,79,0.00,,,0.00,Wunderground v.1.15,2013-03-25 07:02:00,
2013-03-25 03:03:00,33.8,28.0,29.72,East,80,4.0,6.0,79,0.00,,,0.00,Wunderground v.1.15,2013-03-25 07:03:00,
2013-03-25 03:07:00,33.7,27.9,29.72,ENE,72,4.0,8.0,79,0.00,,,0.00,Wunderground v.1.15,2013-03-25 07:07:00,
2013-03-25 03:08:00,33.7,27.9,29.72,East,98,4.0,8.0,79,0.00,,,0.00,Wunderground v.1.15,2013-03-25 07:08:00,
2013-03-25 03:09:00,33.8,28.0,29.72,NE,54,4.0,8.0,79,0.00,,,0.00,Wunderground v.1.15,2013-03-25 07:09:00,
2013-03-25 03:12:00,33.8,28.0,29.72,ESE,110,3.0,4.0,79,0.00,,,0.00,Wunderground v.1.15,2013-03-25 07:12:00,
2013-03-25 03:13:00,33.8,28.0,29.72,East,101,3.0,4.0,79,0.00,,,0.00,Wunderground v.1.15,2013-03-25 07:13:00,
2013-03-25 03:16:00,33.7,27.9,29.72,ESE,119,3.0,8.0,79,0.00,,,0.00,Wunderground v.1.15,2013-03-25 07:16:00,
2013-03-25 03:18:00,33.7,27.9,29.72,NW,321,2.0,8.0,79,0.00,,,0.00,Wunderground v.1.15,2013-03-25 07:18:00,
2013-03-25 03:19:00,33.8,28.0,29.72,ENE,70,3.0,8.0,79,0.00,,,0.00,Wunderground v.1.15,2013-03-25 07:19:00,
2013-03-25 03:20:00,33.8,28.0,29.72,SE,133,3.0,3.0,79,0.00,,,0.00,Wunderground v.1.15,2013-03-25 07:20:00,
2013-03-25 03:22:00,33.8,28.0,29.72,ENE,76,3.0,5.0,79,0.00,,,0.00,Wunderground v.1.15,2013-03-25 07:22:00,
2013-03-25 03:27:00,33.7,27.9,29.72,NE,55,3.0,5.0,79,0.00,,,0.00,Wunderground v.1.15,2013-03-25 07:27:00,
2013-03-25 03:28:00,33.7,27.9,29.72,ENE,73,3.0,11.0,79,0.00,,,0.00,Wunderground v.1.15,2013-03-25 07:28:00,
2013-03-25 03:29:00,33.7,27.9,29.72,ENE,73,3.0,11.0,79,0.00,,,0.00,Wunderground v.1.15,2013-03-25 07:29:00,
2013-03-25 03:33:00,33.7,27.6,29.72,East,79,3.0,8.0,78,0.00,,,0.00,Wunderground v.1.15,2013-03-25 07:33:00,
2013-03-25 03:37:00,33.6,27.5,29.72,North,352,3.0,8.0,78,0.00,,,0.00,Wunderground v.1.15,2013-03-25 07:37:00,
2013-03-25 03:38:00,33.6,27.5,29.71,ENE,65,4.0,8.0,78,0.00,,,0.00,Wunderground v.1.15,2013-03-25 07:38:00,
2013-03-25 03:40:00,33.6,27.5,29.71,NE,56,3.0,5.0,78,0.00,,,0.00,Wunderground v.1.15,2013-03-25 07:40:00,
2013-03-25 03:42:00,33.6,27.2,29.71,ENE,72,3.0,5.0,77,0.00,,,0.00,Wunderground v.1.15,2013-03-25 07:42:00,
2013-03-25 03:44:00,33.6,27.2,29.71,ENE,77,4.0,5.0,77,0.00,,,0.00,Wunderground v.1.15,2013-03-25 07:44:00,
2013-03-25 03:45:00,33.6,27.2,29.71,East,87,4.0,5.0,77,0.00,,,0.00,Wunderground v.1.15,2013-03-25 07:45:00,
2013-03-25 03:50:00,33.5,27.1,29.71,East,91,3.0,5.0,77,0.00,,,0.00,Wunderground v.1.15,2013-03-25 07:50:00,
2013-03-25 03:52:00,33.5,26.7,29.71,NE,51,3.0,5.0,76,0.00,,,0.00,Wunderground v.1.15,2013-03-25 07:52:00,
2013-03-25 03:53:00,33.5,26.7,29.71,East,86,3.0,5.0,76,0.00,,,0.00,Wunderground v.1.15,2013-03-25 07:53:00,
2013-03-25 03:57:00,33.4,26.6,29.70,ENE,76,3.0,5.0,76,0.00,,,0.00,Wunderground v.1.15,2013-03-25 07:57:00,
2013-03-25 03:58:00,33.4,26.6,29.71,East,86,3.0,5.0,76,0.00,,,0.00,Wunderground v.1.15,2013-03-25 07:58:00,
2013-03-25 03:59:00,33.4,26.6,29.70,ESE,108,3.0,5.0,76,0.00,,,0.00,Wunderground v.1.15,2013-03-25 07:59:00,
2013-03-25 04:01:00,33.3,26.5,29.71,ENE,68,2.0,3.0,76,0.00,,,0.00,Wunderground v.1.15,2013-03-25 08:01:00,
2013-03-25 04:02:00,33.3,26.9,29.70,East,89,2.0,6.0,77,0.00,,,0.00,Wunderground v.1.15,2013-03-25 08:02:00,
2013-03-25 04:04:00,33.3,26.5,29.70,East,97,2.0,6.0,76,0.00,,,0.00,Wunderground v.1.15,2013-03-25 08:04:00,
2013-03-25 04:07:00,33.3,26.5,29.70,ENE,76,2.0,6.0,76,0.00,,,0.00,Wunderground v.1.15,2013-03-25 08:07:00,
2013-03-25 04:09:00,33.3,26.5,29.70,ESE,108,2.0,6.0,76,0.00,,,0.00,Wunderground v.1.15,2013-03-25 08:09:00,
2013-03-25 04:10:00,33.3,26.5,29.70,East,84,2.0,4.0,76,0.00,,,0.00,Wunderground v.1.15,2013-03-25 08:10:00,
2013-03-25 04:11:00,33.2,26.5,29.70,ENE,66,2.0,4.0,76,0.00,,,0.00,Wunderground v.1.15,2013-03-25 08:11:00,
2013-03-25 04:14:00,33.2,26.8,29.70,East,79,2.0,4.0,77,0.00,,,0.00,Wunderground v.1.15,2013-03-25 08:14:00,
2013-03-25 04:15:00,33.1,26.7,29.70,ENE,58,2.0,4.0,77,0.00,,,0.00,Wunderground v.1.15,2013-03-25 08:15:00,
2013-03-25 04:17:00,33.1,26.7,29.70,East,89,2.0,4.0,77,0.00,,,0.00,Wunderground v.1.15,2013-03-25 08:17:00,
2013-03-25 04:21:00,33.1,26.7,29.70,ESE,113,2.0,2.0,77,0.00,,,0.00,Wunderground v.1.15,2013-03-25 08:21:00,
2013-03-25 04:22:00,33.1,26.7,29.70,East,101,2.0,4.0,77,0.00,,,0.00,Wunderground v.1.15,2013-03-25 08:22:00,
2013-03-25 04:23:00,33.1,26.7,29.70,East,95,2.0,4.0,77,0.00,,,0.00,Wunderground v.1.15,2013-03-25 08:23:00,
2013-03-25 04:26:00,33.0,26.6,29.70,NE,54,2.0,4.0,77,0.00,,,0.00,Wunderground v.1.15,2013-03-25 08:26:00,
2013-03-25 04:27:00,33.1,26.7,29.70,ESE,102,2.0,4.0,77,0.00,,,0.00,Wunderground v.1.15,2013-03-25 08:27:00,
2013-03-25 04:32:00,33.0,26.6,29.70,ESE,103,2.0,4.0,77,0.00,,,0.00,Wunderground v.1.15,2013-03-25 08:32:00,
2013-03-25 04:33:00,33.0,26.6,29.70,East,91,2.0,4.0,77,0.00,,,0.00,Wunderground v.1.15,2013-03-25 08:33:00,
2013-03-25 04:34:00,33.0,26.3,29.70,ENE,76,2.0,4.0,76,0.00,,,0.00,Wunderground v.1.15,2013-03-25 08:34:00,
2013-03-25 04:37:00,33.0,26.3,29.70,East,96,2.0,5.0,76,0.00,,,0.00,Wunderground v.1.15,2013-03-25 08:37:00,
2013-03-25 04:39:00,33.0,26.3,29.70,NE,46,2.0,5.0,76,0.00,,,0.00,Wunderground v.1.15,2013-03-25 08:39:00,
2013-03-25 04:40:00,33.0,26.3,29.70,ENE,76,2.0,2.0,76,0.00,,,0.00,Wunderground v.1.15,2013-03-25 08:40:00,
2013-03-25 04:41:00,33.0,26.3,29.70,NW,322,2.0,2.0,76,0.00,,,0.00,Wunderground v.1.15,2013-03-25 08:41:00,
2013-03-25 04:42:00,33.0,26.3,29.70,ENE,76,2.0,2.0,76,0.00,,,0.00,Wunderground v.1.15,2013-03-25 08:42:00,
2013-03-25 04:46:00,33.1,26.4,29.70,East,93,3.0,6.0,76,0.00,,,0.00,Wunderground v.1.15,2013-03-25 08:46:00,
2013-03-25 04:47:00,33.0,26.3,29.70,ENE,57,3.0,6.0,76,0.00,,,0.00,Wunderground v.1.15,2013-03-25 08:47:00,
2013-03-25 04:49:00,33.1,26.4,29.70,ENE,64,3.0,7.0,76,0.00,,,0.00,Wunderground v.1.15,2013-03-25 08:49:00,
2013-03-25 04:52:00,33.1,26.4,29.70,ENE,57,3.0,3.0,76,0.00,,,0.00,Wunderground v.1.15,2013-03-25 08:52:00,
2013-03-25 04:53:00,33.1,26.4,29.70,NE,44,3.0,5.0,76,0.00,,,0.00,Wunderground v.1.15,2013-03-25 08:53:00,
2013-03-25 04:54:00,33.1,26.4,29.70,ENE,76,3.0,7.0,76,0.00,,,0.00,Wunderground v.1.15,2013-03-25 08:54:00,
2013-03-25 04:56:00,33.1,26.4,29.70,ENE,63,3.0,7.0,76,0.00,,,0.00,Wunderground v.1.15,2013-03-25 08:56:00,
2013-03-25 04:58:00,33.2,26.5,29.70,ESE,111,3.0,9.0,76,0.00,,,0.00,Wunderground v.1.15,2013-03-25 08:58:00,
2013-03-25 05:01:00,33.2,26.5,29.70,ENE,66,3.0,10.0,76,0.00,,,0.00,Wunderground v.1.15,2013-03-25 09:01:00,
2013-03-25 05:02:00,33.2,26.5,29.70,ENE,70,3.0,10.0,76,0.00,,,0.00,Wunderground v.1.15,2013-03-25 09:02:00,
2013-03-25 05:04:00,33.2,26.5,29.70,NE,56,3.0,10.0,76,0.00,,,0.00,Wunderground v.1.15,2013-03-25 09:04:00,
2013-03-25 05:06:00,33.2,26.5,29.70,ESE,103,3.0,10.0,76,0.00,,,0.00,Wunderground v.1.15,2013-03-25 09:06:00,
2013-03-25 05:07:00,33.2,26.5,29.70,ENE,65,3.0,10.0,76,0.00,,,0.00,Wunderground v.1.15,2013-03-25 09:07:00,
2013-03-25 05:09:00,33.2,26.1,29.70,ENE,68,3.0,10.0,75,0.00,,,0.00,Wunderground v.1.15,2013-03-25 09:09:00,
2013-03-25 05:11:00,33.2,26.1,29.70,East,82,3.0,10.0,75,0.00,,,0.00,Wunderground v.1.15,2013-03-25 09:11:00,
2013-03-25 05:12:00,33.2,26.1,29.70,ENE,63,3.0,10.0,75,0.00,,,0.00,Wunderground v.1.15,2013-03-25 09:12:00,
2013-03-25 05:17:00,33.2,26.1,29.70,ESE,120,3.0,10.0,75,0.00,,,0.00,Wunderground v.1.15,2013-03-25 09:17:00,
2013-03-25 05:18:00,33.2,26.1,29.70,East,90,3.0,10.0,75,0.00,,,0.00,Wunderground v.1.15,2013-03-25 09:18:00,
2013-03-25 05:21:00,33.2,26.1,29.70,East,101,3.0,10.0,75,0.00,,,0.00,Wunderground v.1.15,2013-03-25 09:21:00,
2013-03-25 05:22:00,33.2,26.1,29.71,East,86,3.0,10.0,75,0.00,,,0.00,Wunderground v.1.15,2013-03-25 09:22:00,
2013-03-25 05:24:00,33.2,26.1,29.71,ENE,59,3.0,10.0,75,0.00,,,0.00,Wunderground v.1.15,2013-03-25 09:24:00,
2013-03-25 05:25:00,33.2,26.1,29.71,ESE,117,3.0,10.0,75,0.00,,,0.00,Wunderground v.1.15,2013-03-25 09:25:00,
2013-03-25 05:28:00,33.2,26.1,29.71,East,99,3.0,10.0,75,0.00,,,0.00,Wunderground v.1.15,2013-03-25 09:28:00,
2013-03-25 05:31:00,33.2,25.8,29.70,East,99,3.0,5.0,74,0.00,,,0.00,Wunderground v.1.15,2013-03-25 09:31:00,
2013-03-25 05:35:00,33.2,25.8,29.70,East,87,3.0,10.0,74,0.00,,,0.00,Wunderground v.1.15,2013-03-25 09:35:00,
2013-03-25 05:36:00,33.2,25.8,29.71,NE,46,3.0,10.0,74,0.00,,,0.00,Wunderground v.1.15,2013-03-25 09:36:00,
2013-03-25 05:37:00,33.1,25.7,29.70,ENE,59,2.0,10.0,74,0.00,,,0.00,Wunderground v.1.15,2013-03-25 09:37:00,
2013-03-25 05:40:00,33.1,25.7,29.70,ENE,68,2.0,10.0,74,0.00,,,0.00,Wunderground v.1.15,2013-03-25 09:40:00,
2013-03-25 05:41:00,33.1,25.7,29.71,NE,53,2.0,10.0,74,0.00,,,0.00,Wunderground v.1.15,2013-03-25 09:41:00,
2013-03-25 05:42:00,33.1,25.7,29.71,ENE,63,3.0,10.0,74,0.00,,,0.00,Wunderground v.1.15,2013-03-25 09:42:00,
2013-03-25 05:46:00,33.1,25.7,29.71,East,96,2.0,10.0,74,0.00,,,0.00,Wunderground v.1.15,2013-03-25 09:46:00,
2013-03-25 05:47:00,33.1,25.7,29.71,ENE,73,2.0,10.0,74,0.00,,,0.00,Wunderground v.1.15,2013-03-25 09:47:00,
2013-03-25 05:48:00,33.1,25.4,29.71,East,84,3.0,10.0,73,0.00,,,0.00,Wunderground v.1.15,2013-03-25 09:48:00,
2013-03-25 05:50:00,33.1,25.4,29.71,East,101,3.0,3.0,73,0.00,,,0.00,Wunderground v.1.15,2013-03-25 09:50:00,
2013-03-25 05:53:00,33.0,25.6,29.71,East,80,2.0,10.0,74,0.00,,,0.00,Wunderground v.1.15,2013-03-25 09:53:00,
2013-03-25 05:54:00,33.0,25.6,29.71,NE,52,2.0,10.0,74,0.00,,,0.00,Wunderground v.1.15,2013-03-25 09:54:00,
2013-03-25 05:55:00,33.0,25.6,29.71,ENE,58,2.0,10.0,74,0.00,,,0.00,Wunderground v.1.15,2013-03-25 09:55:00,
2013-03-25 05:57:00,33.0,25.3,29.71,SE,132,2.0,10.0,73,0.00,,,0.00,Wunderground v.1.15,2013-03-25 09:57:00,
2013-03-25 06:00:00,33.0,25.3,29.71,ENE,58,2.0,2.0,73,0.00,,,0.00,Wunderground v.1.15,2013-03-25 10:00:00,
2013-03-25 06:02:00,33.0,25.3,29.71,East,80,3.0,10.0,73,0.00,,,0.00,Wunderground v.1.15,2013-03-25 10:02:00,
2013-03-25 06:04:00,33.0,25.3,29.71,ENE,68,2.0,10.0,73,0.00,,,0.00,Wunderground v.1.15,2013-03-25 10:04:00,
2013-03-25 06:06:00,32.9,25.2,29.71,ENE,65,2.0,10.0,73,0.00,,,0.00,Wunderground v.1.15,2013-03-25 10:06:00,
2013-03-25 06:08:00,32.9,25.2,29.71,ENE,68,3.0,10.0,73,0.00,,,0.00,Wunderground v.1.15,2013-03-25 10:08:00,
2013-03-25 06:09:00,32.9,25.2,29.71,East,80,3.0,10.0,73,0.00,,,0.00,Wunderground v.1.15,2013-03-25 10:09:00,
2013-03-25 06:11:00,32.9,25.2,29.71,NE,44,3.0,10.0,73,0.00,,,0.00,Wunderground v.1.15,2013-03-25 10:11:00,
2013-03-25 06:14:00,32.9,25.2,29.71,East,82,3.0,10.0,73,0.00,,,0.00,Wunderground v.1.15,2013-03-25 10:14:00,
2013-03-25 06:15:00,32.9,25.2,29.71,ENE,65,3.0,10.0,73,0.00,,,0.00,Wunderground v.1.15,2013-03-25 10:15:00,
2013-03-25 06:17:00,32.9,24.9,29.71,East,91,3.0,10.0,72,0.00,,,0.00,Wunderground v.1.15,2013-03-25 10:17:00,
2013-03-25 06:18:00,32.9,24.9,29.71,ENE,68,3.0,10.0,72,0.00,,,0.00,Wunderground v.1.15,2013-03-25 10:18:00,
2013-03-25 06:20:00,32.9,24.9,29.71,East,101,3.0,3.0,72,0.00,,,0.00,Wunderground v.1.15,2013-03-25 10:20:00,
2013-03-25 06:23:00,32.9,24.9,29.71,NE,36,4.0,10.0,72,0.00,,,0.00,Wunderground v.1.15,2013-03-25 10:23:00,
2013-03-25 06:25:00,32.9,24.9,29.70,ENE,70,4.0,10.0,72,0.00,,,0.00,Wunderground v.1.15,2013-03-25 10:25:00,
2013-03-25 06:26:00,32.9,24.9,29.71,NE,52,4.0,10.0,72,0.00,,,0.00,Wunderground v.1.15,2013-03-25 10:26:00,
2013-03-25 06:28:00,32.9,24.9,29.71,East,99,3.0,10.0,72,0.00,,,0.00,Wunderground v.1.15,2013-03-25 10:28:00,
2013-03-25 06:30:00,32.8,24.8,29.71,East,79,3.0,3.0,72,0.00,,,0.00,Wunderground v.1.15,2013-03-25 10:30:00,
2013-03-25 06:31:00,32.8,24.8,29.71,ENE,68,3.0,10.0,72,0.00,,,0.00,Wunderground v.1.15,2013-03-25 10:31:00,
2013-03-25 06:32:00,32.8,24.8,29.71,East,87,3.0,10.0,72,0.00,,,0.00,Wunderground v.1.15,2013-03-25 10:32:00,
2013-03-25 06:35:00,32.8,24.8,29.71,ENE,75,2.0,10.0,72,0.00,,,0.00,Wunderground v.1.15,2013-03-25 10:35:00,
2013-03-25 06:36:00,32.8,24.8,29.71,ENE,70,2.0,10.0,72,0.00,,,0.00,Wunderground v.1.15,2013-03-25 10:36:00,
2013-03-25 06:38:00,32.7,24.7,29.71,ENE,62,2.0,10.0,72,0.00,,,0.00,Wunderground v.1.15,2013-03-25 10:38:00,
2013-03-25 06:40:00,32.8,24.8,29.71,ENE,76,3.0,3.0,72,0.00,,,0.00,Wunderground v.1.15,2013-03-25 10:40:00,
2013-03-25 06:41:00,32.7,24.7,29.71,ENE,69,3.0,4.0,72,0.00,,,0.00,Wunderground v.1.15,2013-03-25 10:41:00,
2013-03-25 06:42:00,32.7,24.7,29.71,East,83,3.0,10.0,72,0.00,,,0.00,Wunderground v.1.15,2013-03-25 10:42:00,
2013-03-25 06:46:00,32.7,24.7,29.71,East,93,4.0,10.0,72,0.00,,,0.00,Wunderground v.1.15,2013-03-25 10:46:00,
2013-03-25 06:48:00,32.8,24.8,29.71,NE,49,4.0,10.0,72,0.00,,,0.00,Wunderground v.1.15,2013-03-25 10:48:00,
2013-03-25 06:50:00,32.7,24.7,29.71,SE,125,4.0,4.0,72,0.00,,,0.00,Wunderground v.1.15,2013-03-25 10:50:00,
2013-03-25 06:51:00,32.7,24.7,29.71,NE,55,4.0,10.0,72,0.00,,,0.00,Wunderground v.1.15,2013-03-25 10:51:00,
2013-03-25 06:55:00,32.7,24.7,29.71,East,99,3.0,10.0,72,0.00,,,0.00,Wunderground v.1.15,2013-03-25 10:55:00,
2013-03-25 06:56:00,32.7,24.7,29.70,ENE,65,3.0,10.0,72,0.00,,,0.00,Wunderground v.1.15,2013-03-25 10:56:00,
2013-03-25 06:57:00,32.7,24.7,29.71,ESE,102,3.0,10.0,72,0.00,,,0.00,Wunderground v.1.15,2013-03-25 10:57:00,
2013-03-25 06:59:00,32.6,24.6,29.71,ESE,112,3.0,10.0,72,0.00,,,0.00,Wunderground v.1.15,2013-03-25 10:59:00,
2013-03-25 07:01:00,32.6,24.6,29.71,ESE,112,3.0,6.0,72,0.00,,,0.00,Wunderground v.1.15,2013-03-25 11:01:00,
2013-03-25 07:03:00,32.6,24.6,29.71,East,86,3.0,10.0,72,0.00,,,0.00,Wunderground v.1.15,2013-03-25 11:03:00,
2013-03-25 07:04:00,32.6,24.6,29.71,ESE,106,3.0,10.0,72,0.00,,,0.00,Wunderground v.1.15,2013-03-25 11:04:00,
2013-03-25 07:07:00,32.6,24.9,29.71,East,89,3.0,10.0,73,0.00,,,0.00,Wunderground v.1.15,2013-03-25 11:07:00,
2013-03-25 07:09:00,32.7,25.0,29.71,East,79,3.0,10.0,73,0.00,,,0.00,Wunderground v.1.15,2013-03-25 11:09:00,
2013-03-25 07:10:00,32.7,25.0,29.71,East,82,3.0,3.0,73,0.00,,,0.00,Wunderground v.1.15,2013-03-25 11:10:00,
2013-03-25 07:12:00,32.7,25.0,29.71,East,90,3.0,10.0,73,0.00,,,0.00,Wunderground v.1.15,2013-03-25 11:12:00,
2013-03-25 07:13:00,32.7,25.0,29.71,East,91,3.0,10.0,73,0.00,,,0.00,Wunderground v.1.15,2013-03-25 11:13:00,
2013-03-25 07:18:00,32.7,25.0,29.71,NE,54,2.0,10.0,73,0.00,,,0.00,Wunderground v.1.15,2013-03-25 11:18:00,
2013-03-25 07:19:00,32.7,25.0,29.71,NE,51,2.0,10.0,73,0.00,,,0.00,Wunderground v.1.15,2013-03-25 11:19:00,
2013-03-25 07:21:00,32.7,25.0,29.71,ESE,116,2.0,10.0,73,0.00,,,0.00,Wunderground v.1.15,2013-03-25 11:21:00,
2013-03-25 07:22:00,32.7,25.0,29.71,ESE,103,2.0,10.0,73,0.00,,,0.00,Wunderground v.1.15,2013-03-25 11:22:00,
2013-03-25 07:26:00,32.7,25.0,29.71,ESE,110,2.0,10.0,73,0.00,,,0.00,Wunderground v.1.15,2013-03-25 11:26:00,
2013-03-25 07:27:00,32.7,25.0,29.71,ESE,105,2.0,10.0,73,0.00,,,0.00,Wunderground v.1.15,2013-03-25 11:27:00,
2013-03-25 07:31:00,32.7,25.0,29.71,ENE,62,2.0,10.0,73,0.00,,,0.00,Wunderground v.1.15,2013-03-25 11:31:00,
2013-03-25 07:33:00,32.7,25.0,29.71,East,91,1.0,10.0,73,0.00,,,0.00,Wunderground v.1.15,2013-03-25 11:33:00,
2013-03-25 07:34:00,32.7,25.0,29.71,North,3,1.0,10.0,73,0.00,,,0.00,Wunderground v.1.15,2013-03-25 11:34:00,
2013-03-25 07:35:00,32.7,25.0,29.71,NE,43,1.0,10.0,73,0.00,,,0.00,Wunderground v.1.15,2013-03-25 11:35:00,
2013-03-25 07:38:00,32.8,25.1,29.71,ENE,62,1.0,10.0,73,0.00,,,0.00,Wunderground v.1.15,2013-03-25 11:38:00,
2013-03-25 07:40:00,32.8,25.1,29.71,East,80,1.0,10.0,73,0.00,,,0.00,Wunderground v.1.15,2013-03-25 11:40:00,
2013-03-25 07:41:00,32.8,25.1,29.71,NE,50,1.0,10.0,73,0.00,,,0.00,Wunderground v.1.15,2013-03-25 11:41:00,
2013-03-25 07:45:00,32.8,25.1,29.71,East,98,2.0,10.0,73,0.00,,,0.00,Wunderground v.1.15,2013-03-25 11:45:00,
2013-03-25 07:46:00,32.8,25.1,29.71,ENE,70,2.0,10.0,73,0.00,,,0.00,Wunderground v.1.15,2013-03-25 11:46:00,
2013-03-25 07:48:00,32.8,25.1,29.71,ENE,61,2.0,10.0,73,0.00,,,0.00,Wunderground v.1.15,2013-03-25 11:48:00,
2013-03-25 07:51:00,32.8,25.1,29.71,NE,35,2.0,4.0,73,0.00,,,0.00,Wunderground v.1.15,2013-03-25 11:51:00,
2013-03-25 07:54:00,32.8,25.1,29.71,NE,53,2.0,10.0,73,0.00,,,0.00,Wunderground v.1.15,2013-03-25 11:54:00,
2013-03-25 07:56:00,32.8,25.1,29.71,East,98,2.0,10.0,73,0.00,,,0.00,Wunderground v.1.15,2013-03-25 11:56:00,
2013-03-25 07:57:00,32.8,25.1,29.71,East,87,2.0,10.0,73,0.00,,,0.00,Wunderground v.1.15,2013-03-25 11:57:00,
2013-03-25 07:58:00,32.8,25.1,29.71,NE,43,2.0,10.0,73,0.00,,,0.00,Wunderground v.1.15,2013-03-25 11:58:00,
2013-03-25 08:02:00,32.8,25.1,29.70,ENE,66,2.0,10.0,73,0.00,,,0.00,Wunderground v.1.15,2013-03-25 12:02:00,
2013-03-25 08:03:00,32.8,25.1,29.70,East,82,2.0,10.0,73,0.00,,,0.00,Wunderground v.1.15,2013-03-25 12:03:00,
2013-03-25 08:05:00,32.8,25.1,29.70,East,98,2.0,10.0,73,0.00,,,0.00,Wunderground v.1.15,2013-03-25 12:05:00,
2013-03-25 08:07:00,32.8,25.1,29.70,NNE,26,2.0,10.0,73,0.00,,,0.00,Wunderground v.1.15,2013-03-25 12:07:00,
2013-03-25 08:10:00,32.8,24.8,29.70,ENE,76,2.0,2.0,72,0.00,,,0.00,Wunderground v.1.15,2013-03-25 12:10:00,
2013-03-25 08:12:00,32.8,25.1,29.70,ENE,63,1.0,10.0,73,0.00,,,0.00,Wunderground v.1.15,2013-03-25 12:12:00,
2013-03-25 08:15:00,32.9,25.2,29.70,ESE,105,1.0,10.0,73,0.00,,,0.00,Wunderground v.1.15,2013-03-25 12:15:00,
2013-03-25 08:16:00,32.9,25.2,29.70,ENE,62,1.0,10.0,73,0.00,,,0.00,Wunderground v.1.15,2013-03-25 12:16:00,
2013-03-25 08:18:00,32.9,25.2,29.70,East,94,1.0,10.0,73,0.00,,,0.00,Wunderground v.1.15,2013-03-25 12:18:00,
2013-03-25 08:21:00,32.9,25.2,29.70,NE,35,1.0,10.0,73,0.00,,,0.00,Wunderground v.1.15,2013-03-25 12:21:00,
2013-03-25 08:22:00,32.9,25.2,29.70,ENE,74,1.0,10.0,73,0.00,,,0.00,Wunderground v.1.15,2013-03-25 12:22:00,
2013-03-25 08:23:00,33.0,25.0,29.70,NNE,18,1.0,10.0,72,0.00,,,0.00,Wunderground v.1.15,2013-03-25 12:23:00,
2013-03-25 08:25:00,33.0,25.0,29.70,ENE,72,2.0,10.0,72,0.00,,,0.00,Wunderground v.1.15,2013-03-25 12:25:00,
2013-03-25 08:29:00,33.1,25.1,29.70,NE,35,2.0,10.0,72,0.00,,,0.00,Wunderground v.1.15,2013-03-25 12:29:00,
2013-03-25 08:31:00,33.1,25.1,29.70,East,91,2.0,10.0,72,0.00,,,0.00,Wunderground v.1.15,2013-03-25 12:31:00,
2013-03-25 08:33:00,33.1,25.1,29.70,NE,55,2.0,10.0,72,0.00,,,0.00,Wunderground v.1.15,2013-03-25 12:33:00,
2013-03-25 08:34:00,33.2,25.1,29.70,East,79,2.0,10.0,72,0.00,,,0.00,Wunderground v.1.15,2013-03-25 12:34:00,
2013-03-25 08:36:00,33.2,25.1,29.70,ENE,76,2.0,10.0,72,0.00,,,0.00,Wunderground v.1.15,2013-03-25 12:36:00,
2013-03-25 08:37:00,33.3,25.2,29.70,NE,39,2.0,10.0,72,0.00,,,0.00,Wunderground v.1.15,2013-03-25 12:37:00,
2013-03-25 08:40:00,33.4,25.0,29.70,East,101,2.0,10.0,71,0.00,,,0.00,Wunderground v.1.15,2013-03-25 12:40:00,
2013-03-25 08:41:00,33.4,25.0,29.70,East,87,3.0,10.0,71,0.00,,,0.00,Wunderground v.1.15,2013-03-25 12:41:00,
2013-03-25 08:42:00,33.4,25.0,29.70,North,4,3.0,10.0,71,0.00,,,0.00,Wunderground v.1.15,2013-03-25 12:42:00,
2013-03-25 08:43:00,33.5,25.1,29.70,NE,34,2.0,10.0,71,0.00,,,0.00,Wunderground v.1.15,2013-03-25 12:43:00,
2013-03-25 08:45:00,33.6,25.2,29.70,East,98,2.0,10.0,71,0.00,,,0.00,Wunderground v.1.15,2013-03-25 12:45:00,
2013-03-25 08:46:00,33.7,25.3,29.70,North,350,2.0,10.0,71,0.00,,,0.00,Wunderground v.1.15,2013-03-25 12:46:00,
2013-03-25 08:50:00,33.8,25.0,29.70,East,84,2.0,2.0,70,0.00,,,0.00,Wunderground v.1.15,2013-03-25 12:50:00,
2013-03-25 08:51:00,33.9,25.1,29.70,East,82,2.0,10.0,70,0.00,,,0.00,Wunderground v.1.15,2013-03-25 12:51:00,
2013-03-25 08:52:00,33.9,25.1,29.70,ESE,105,2.0,10.0,70,0.00,,,0.00,Wunderground v.1.15,2013-03-25 12:52:00,
2013-03-25 08:55:00,34.2,25.1,29.70,ESE,117,2.0,10.0,69,0.00,,,0.00,Wunderground v.1.15,2013-03-25 12:55:00,
2013-03-25 08:56:00,34.2,25.1,29.70,East,94,2.0,10.0,69,0.00,,,0.00,Wunderground v.1.15,2013-03-25 12:56:00,
2013-03-25 08:57:00,34.3,25.2,29.70,East,100,2.0,10.0,69,0.00,,,0.00,Wunderground v.1.15,2013-03-25 12:57:00,
2013-03-25 08:58:00,34.4,25.3,29.70,East,86,2.0,10.0,69,0.00,,,0.00,Wunderground v.1.15,2013-03-25 12:58:00,
2013-03-25 09:03:00,34.4,24.9,29.70,East,84,3.0,10.0,68,0.00,,,0.00,Wunderground v.1.15,2013-03-25 13:03:00,
2013-03-25 09:04:00,34.4,24.9,29.70,ENE,63,3.0,10.0,68,0.00,,,0.00,Wunderground v.1.15,2013-03-25 13:04:00,
2013-03-25 09:05:00,34.4,24.9,29.70,ENE,73,3.0,10.0,68,0.00,,,0.00,Wunderground v.1.15,2013-03-25 13:05:00,
2013-03-25 09:08:00,34.5,25.0,29.69,East,84,4.0,10.0,68,0.00,,,0.00,Wunderground v.1.15,2013-03-25 13:08:00,
2013-03-25 09:10:00,34.6,25.1,29.69,ESE,105,4.0,10.0,68,0.00,,,0.00,Wunderground v.1.15,2013-03-25 13:10:00,
2013-03-25 09:11:00,34.7,25.2,29.69,ESE,115,4.0,10.0,68,0.00,,,0.00,Wunderground v.1.15,2013-03-25 13:11:00,
2013-03-25 09:14:00,35.1,25.2,29.69,ENE,72,3.0,10.0,67,0.00,,,0.00,Wunderground v.1.15,2013-03-25 13:14:00,
2013-03-25 09:18:00,35.2,25.0,29.69,East,79,3.0,10.0,66,0.00,,,0.00,Wunderground v.1.15,2013-03-25 13:18:00,
2013-03-25 09:19:00,35.2,25.0,29.69,East,87,3.0,10.0,66,0.00,,,0.00,Wunderground v.1.15,2013-03-25 13:19:00,
2013-03-25 09:21:00,35.3,25.1,29.69,ESE,116,3.0,10.0,66,0.00,,,0.00,Wunderground v.1.15,2013-03-25 13:21:00,
2013-03-25 09:23:00,35.4,25.2,29.69,NE,46,3.0,10.0,66,0.00,,,0.00,Wunderground v.1.15,2013-03-25 13:23:00,
2013-03-25 09:24:00,35.6,25.7,29.69,East,96,3.0,10.0,67,0.00,,,0.00,Wunderground v.1.15,2013-03-25 13:24:00,
2013-03-25 09:25:00,35.6,25.4,29.69,NE,54,3.0,10.0,66,0.00,,,0.00,Wunderground v.1.15,2013-03-25 13:25:00,
2013-03-25 09:27:00,35.7,25.4,29.69,ENE,77,3.0,10.0,66,0.00,,,0.00,Wunderground v.1.15,2013-03-25 13:27:00,
2013-03-25 09:30:00,35.5,24.9,29.69,East,81,3.0,3.0,65,0.00,,,0.00,Wunderground v.1.15,2013-03-25 13:30:00,
2013-03-25 09:32:00,35.5,25.3,29.68,NE,34,3.0,10.0,66,0.00,,,0.00,Wunderground v.1.15,2013-03-25 13:32:00,
2013-03-25 09:33:00,35.5,25.3,29.68,ENE,65,3.0,10.0,66,0.00,,,0.00,Wunderground v.1.15,2013-03-25 13:33:00,
2013-03-25 09:37:00,35.6,25.4,29.69,East,96,3.0,10.0,66,0.00,,,0.00,Wunderground v.1.15,2013-03-25 13:37:00,
2013-03-25 09:38:00,35.7,25.4,29.68,ESE,118,2.0,10.0,66,0.00,,,0.00,Wunderground v.1.15,2013-03-25 13:38:00,
2013-03-25 09:43:00,35.8,25.5,29.68,ESE,106,2.0,10.0,66,0.00,,,0.00,Wunderground v.1.15,2013-03-25 13:43:00,
2013-03-25 09:44:00,35.9,25.6,29.68,East,82,2.0,10.0,66,0.00,,,0.00,Wunderground v.1.15,2013-03-25 13:44:00,
2013-03-25 09:46:00,36.0,25.7,29.68,ESE,114,2.0,10.0,66,0.00,,,0.00,Wunderground v.1.15,2013-03-25 13:46:00,
2013-03-25 09:48:00,36.2,25.6,29.68,East,80,2.0,10.0,65,0.00,,,0.00,Wunderground v.1.15,2013-03-25 13:48:00,
2013-03-25 09:49:00,36.3,26.0,29.68,ESE,120,2.0,10.0,66,0.00,,,0.00,Wunderground v.1.15,2013-03-25 13:49:00,
2013-03-25 09:52:00,36.6,25.6,29.68,NNE,31,2.0,10.0,64,0.00,,,0.00,Wunderground v.1.15,2013-03-25 13:52:00,
2013-03-25 09:53:00,36.7,25.7,29.68,ESE,118,2.0,10.0,64,0.00,,,0.00,Wunderground v.1.15,2013-03-25 13:53:00,
2013-03-25 09:57:00,36.8,25.8,29.68,NE,49,2.0,10.0,64,0.00,,,0.00,Wunderground v.1.15,2013-03-25 13:57:00,
2013-03-25 09:58:00,37.0,25.9,29.68,ENE,70,2.0,10.0,64,0.00,,,0.00,Wunderground v.1.15,2013-03-25 13:58:00,
2013-03-25 09:59:00,37.0,25.6,29.68,ENE,72,2.0,10.0,63,0.00,,,0.00,Wunderground v.1.15,2013-03-25 13:59:00,
2013-03-25 10:00:00,37.0,25.9,29.68,East,90,2.0,10.0,64,0.00,,,0.00,Wunderground v.1.15,2013-03-25 14:00:00,
2013-03-25 10:04:00,37.4,26.7,29.68,ENE,60,2.0,10.0,65,0.00,,,0.00,Wunderground v.1.15,2013-03-25 14:04:00,
2013-03-25 10:05:00,37.5,26.8,29.68,NNE,18,2.0,10.0,65,0.00,,,0.00,Wunderground v.1.15,2013-03-25 14:05:00,
2013-03-25 10:07:00,37.5,27.2,29.68,East,84,2.0,10.0,66,0.00,,,0.00,Wunderground v.1.15,2013-03-25 14:07:00,
2013-03-25 10:10:00,37.7,27.4,29.68,ESE,103,2.0,2.0,66,0.00,,,0.00,Wunderground v.1.15,2013-03-25 14:10:00,
2013-03-25 10:11:00,37.6,26.9,29.68,ENE,65,2.0,4.0,65,0.00,,,0.00,Wunderground v.1.15,2013-03-25 14:11:00,
2013-03-25 10:13:00,37.3,26.6,29.68,East,86,2.0,10.0,65,0.00,,,0.00,Wunderground v.1.15,2013-03-25 14:13:00,
2013-03-25 10:17:00,36.9,27.0,29.68,ESE,103,3.0,10.0,67,0.00,,,0.00,Wunderground v.1.15,2013-03-25 14:17:00,
2013-03-25 10:18:00,36.9,27.0,29.68,SE,133,3.0,10.0,67,0.00,,,0.00,Wunderground v.1.15,2013-03-25 14:18:00,
2013-03-25 10:22:00,36.5,26.6,29.68,ENE,62,3.0,10.0,67,0.00,,,0.00,Wunderground v.1.15,2013-03-25 14:22:00,
2013-03-25 10:23:00,36.5,26.9,29.68,ENE,63,3.0,10.0,68,0.00,,,0.00,Wunderground v.1.15,2013-03-25 14:23:00,
2013-03-25 10:26:00,36.5,26.9,29.68,ENE,64,3.0,10.0,68,0.00,,,0.00,Wunderground v.1.15,2013-03-25 14:26:00,
2013-03-25 10:28:00,36.6,27.0,29.68,NE,56,3.0,10.0,68,0.00,,,0.00,Wunderground v.1.15,2013-03-25 14:28:00,
2013-03-25 10:31:00,36.7,27.1,29.68,ENE,75,2.0,3.0,68,0.00,,,0.00,Wunderground v.1.15,2013-03-25 14:31:00,
2013-03-25 10:34:00,36.8,27.2,29.68,NE,37,2.0,10.0,68,0.00,,,0.00,Wunderground v.1.15,2013-03-25 14:34:00,
2013-03-25 10:35:00,36.8,26.9,29.68,NNE,14,2.0,10.0,67,0.00,,,0.00,Wunderground v.1.15,2013-03-25 14:35:00,
2013-03-25 10:38:00,36.8,26.9,29.68,North,5,2.0,10.0,67,0.00,,,0.00,Wunderground v.1.15,2013-03-25 14:38:00,
2013-03-25 10:40:00,36.8,27.2,29.68,ENE,70,3.0,3.0,68,0.00,,,0.00,Wunderground v.1.15,2013-03-25 14:40:00,
2013-03-25 10:43:00,36.6,26.7,29.68,East,79,3.0,10.0,67,0.00,,,0.00,Wunderground v.1.15,2013-03-25 14:43:00,
2013-03-25 10:44:00,36.6,26.7,29.68,ENE,68,3.0,10.0,67,0.00,,,0.00,Wunderground v.1.15,2013-03-25 14:44:00,
2013-03-25 10:49:00,36.4,26.8,29.68,East,91,4.0,10.0,68,0.00,,,0.00,Wunderground v.1.15,2013-03-25 14:49:00,
2013-03-25 10:50:00,36.4,26.8,29.68,NE,46,4.0,4.0,68,0.00,,,0.00,Wunderground v.1.15,2013-03-25 14:50:00,
2013-03-25 10:51:00,36.5,26.9,29.68,NE,55,3.0,10.0,68,0.00,,,0.00,Wunderground v.1.15,2013-03-25 14:51:00,
2013-03-25 10:55:00,36.4,26.8,29.68,SE,133,3.0,10.0,68,0.00,,,0.00,Wunderground v.1.15,2013-03-25 14:55:00,
2013-03-25 10:57:00,36.4,27.2,29.68,ENE,63,3.0,10.0,69,0.00,,,0.00,Wunderground v.1.15,2013-03-25 14:57:00,
2013-03-25 11:02:00,36.5,27.6,29.68,East,98,3.0,10.0,70,0.00,,,0.00,Wunderground v.1.15,2013-03-25 15:02:00,
2013-03-25 11:04:00,36.5,27.3,29.68,East,80,3.0,10.0,69,0.00,,,0.00,Wunderground v.1.15,2013-03-25 15:04:00,
2013-03-25 11:05:00,36.5,26.9,29.68,East,90,3.0,10.0,68,0.00,,,0.00,Wunderground v.1.15,2013-03-25 15:05:00,
2013-03-25 11:10:00,36.3,26.7,29.68,ENE,72,4.0,4.0,68,0.00,,,0.00,Wunderground v.1.15,2013-03-25 15:10:00,
2013-03-25 11:13:00,36.3,26.7,29.68,ESE,108,3.0,10.0,68,0.00,,,0.00,Wunderground v.1.15,2013-03-25 15:13:00,
2013-03-25 11:14:00,36.4,27.2,29.68,East,81,3.0,10.0,69,0.00,,,0.00,Wunderground v.1.15,2013-03-25 15:14:00,
2013-03-25 11:16:00,36.4,26.8,29.68,NE,54,4.0,10.0,68,0.00,,,0.00,Wunderground v.1.15,2013-03-25 15:16:00,
2013-03-25 11:17:00,36.4,26.8,29.68,ENE,58,4.0,10.0,68,0.00,,,0.00,Wunderground v.1.15,2013-03-25 15:17:00,
2013-03-25 11:18:00,36.3,26.7,29.68,NNE,19,4.0,10.0,68,0.00,,,0.00,Wunderground v.1.15,2013-03-25 15:18:00,
2013-03-25 11:21:00,36.5,26.9,29.68,ENE,68,4.0,10.0,68,0.00,,,0.00,Wunderground v.1.15,2013-03-25 15:21:00,
2013-03-25 11:22:00,36.6,27.4,29.68,SE,132,4.0,10.0,69,0.00,,,0.00,Wunderground v.1.15,2013-03-25 15:22:00,
2013-03-25 11:24:00,36.8,27.6,29.67,NNW,332,3.0,10.0,69,0.00,,,0.00,Wunderground v.1.15,2013-03-25 15:24:00,
2013-03-25 11:27:00,37.1,27.5,29.68,NW,324,3.0,10.0,68,0.00,,,0.00,Wunderground v.1.15,2013-03-25 15:27:00,
2013-03-25 11:28:00,37.1,27.5,29.68,East,82,2.0,10.0,68,0.00,,,0.00,Wunderground v.1.15,2013-03-25 15:28:00,
2013-03-25 11:30:00,37.2,27.6,29.68,ENE,77,3.0,10.0,68,0.00,,,0.00,Wunderground v.1.15,2013-03-25 15:30:00,
2013-03-25 11:34:00,37.1,27.5,29.68,East,87,3.0,10.0,68,0.00,,,0.00,Wunderground v.1.15,2013-03-25 15:34:00,
2013-03-25 11:35:00,37.1,27.9,29.68,NE,34,3.0,10.0,69,0.00,,,0.00,Wunderground v.1.15,2013-03-25 15:35:00,
2013-03-25 11:38:00,37.5,28.2,29.68,East,87,3.0,10.0,69,0.00,,,0.00,Wunderground v.1.15,2013-03-25 15:38:00,
2013-03-25 11:39:00,37.5,27.5,29.68,ENE,59,3.0,10.0,67,0.00,,,0.00,Wunderground v.1.15,2013-03-25 15:39:00,
2013-03-25 11:41:00,37.5,27.9,29.67,ESE,105,3.0,8.0,68,0.00,,,0.00,Wunderground v.1.15,2013-03-25 15:41:00,
2013-03-25 11:44:00,37.6,28.0,29.67,North,7,3.0,10.0,68,0.00,,,0.00,Wunderground v.1.15,2013-03-25 15:44:00,
2013-03-25 11:46:00,37.8,28.2,29.67,NNW,333,3.0,10.0,68,0.00,,,0.00,Wunderground v.1.15,2013-03-25 15:46:00,
2013-03-25 11:48:00,37.8,27.8,29.67,NNW,345,3.0,10.0,67,0.00,,,0.00,Wunderground v.1.15,2013-03-25 15:48:00,
2013-03-25 11:50:00,37.8,28.2,29.68,SE,144,3.0,3.0,68,0.00,,,0.00,Wunderground v.1.15,2013-03-25 15:50:00,
2013-03-25 11:51:00,38.0,28.4,29.67,WNW,288,3.0,10.0,68,0.00,,,0.00,Wunderground v.1.15,2013-03-25 15:51:00,
2013-03-25 11:53:00,38.2,28.2,29.67,ENE,78,2.0,10.0,67,0.00,,,0.00,Wunderground v.1.15,2013-03-25 15:53:00,
2013-03-25 11:54:00,38.3,28.3,29.67,NW,318,2.0,10.0,67,0.00,,,0.00,Wunderground v.1.15,2013-03-25 15:54:00,
2013-03-25 11:58:00,38.5,28.1,29.67,NNW,345,2.0,10.0,66,0.00,,,0.00,Wunderground v.1.15,2013-03-25 15:58:00,
2013-03-25 11:59:00,38.4,28.0,29.67,NNW,328,2.0,10.0,66,0.00,,,0.00,Wunderground v.1.15,2013-03-25 15:59:00,
2013-03-25 12:02:00,38.1,27.7,29.67,NNE,29,3.0,10.0,66,0.00,,,0.00,Wunderground v.1.15,2013-03-25 16:02:00,
2013-03-25 12:05:00,38.1,27.7,29.67,East,89,3.0,10.0,66,0.00,,,0.00,Wunderground v.1.15,2013-03-25 16:05:00,
2013-03-25 12:07:00,38.2,28.2,29.67,East,82,3.0,10.0,67,0.00,,,0.00,Wunderground v.1.15,2013-03-25 16:07:00,
2013-03-25 12:09:00,38.2,27.8,29.67,East,84,3.0,10.0,66,0.00,,,0.00,Wunderground v.1.15,2013-03-25 16:09:00,
2013-03-25 12:11:00,38.1,27.7,29.67,ENE,64,3.0,5.0,66,0.00,,,0.00,Wunderground v.1.15,2013-03-25 16:11:00,
2013-03-25 12:13:00,37.9,27.5,29.67,ESE,111,4.0,10.0,66,0.00,,,0.00,Wunderground v.1.15,2013-03-25 16:13:00,
2013-03-25 12:14:00,37.9,27.5,29.67,ESE,108,4.0,10.0,66,0.00,,,0.00,Wunderground v.1.15,2013-03-25 16:14:00,
2013-03-25 12:15:00,37.8,27.8,29.67,ENE,64,4.0,10.0,67,0.00,,,0.00,Wunderground v.1.15,2013-03-25 16:15:00,
2013-03-25 12:18:00,38.0,28.4,29.67,NE,36,4.0,10.0,68,0.00,,,0.00,Wunderground v.1.15,2013-03-25 16:18:00,
2013-03-25 12:19:00,38.1,28.1,29.68,NE,47,4.0,10.0,67,0.00,,,0.00,Wunderground v.1.15,2013-03-25 16:19:00,
2013-03-25 12:21:00,38.2,27.8,29.68,North,8,4.0,10.0,66,0.00,,,0.00,Wunderground v.1.15,2013-03-25 16:21:00,
2013-03-25 12:23:00,38.2,27.8,29.67,NNW,343,4.0,10.0,66,0.00,,,0.00,Wunderground v.1.15,2013-03-25 16:23:00,
2013-03-25 12:24:00,38.1,27.7,29.67,ESE,110,3.0,10.0,66,0.00,,,0.00,Wunderground v.1.15,2013-03-25 16:24:00,
2013-03-25 12:25:00,38.2,28.2,29.67,East,82,3.0,10.0,67,0.00,,,0.00,Wunderground v.1.15,2013-03-25 16:25:00,
2013-03-25 12:27:00,38.3,28.3,29.67,East,98,3.0,10.0,67,0.00,,,0.00,Wunderground v.1.15,2013-03-25 16:27:00,
2013-03-25 12:29:00,38.6,28.2,29.67,West,269,3.0,10.0,66,0.00,,,0.00,Wunderground v.1.15,2013-03-25 16:29:00,
2013-03-25 12:33:00,38.5,27.4,29.67,NE,49,3.0,10.0,64,0.00,,,0.00,Wunderground v.1.15,2013-03-25 16:33:00,
2013-03-25 12:36:00,38.3,27.6,29.67,ENE,65,3.0,10.0,65,0.00,,,0.00,Wunderground v.1.15,2013-03-25 16:36:00,
2013-03-25 12:38:00,38.2,27.5,29.67,ESE,115,4.0,10.0,65,0.00,,,0.00,Wunderground v.1.15,2013-03-25 16:38:00,
2013-03-25 12:39:00,38.1,27.7,29.67,East,98,4.0,10.0,66,0.00,,,0.00,Wunderground v.1.15,2013-03-25 16:39:00,
2013-03-25 12:40:00,38.1,27.7,29.67,ENE,61,4.0,10.0,66,0.00,,,0.00,Wunderground v.1.15,2013-03-25 16:40:00,
2013-03-25 12:43:00,38.2,27.8,29.67,East,82,4.0,10.0,66,0.00,,,0.00,Wunderground v.1.15,2013-03-25 16:43:00,
2013-03-25 12:45:00,38.5,28.5,29.67,ENE,62,3.0,10.0,67,0.00,,,0.00,Wunderground v.1.15,2013-03-25 16:45:00,
2013-03-25 12:47:00,38.7,28.3,29.67,ESE,106,3.0,10.0,66,0.00,,,0.00,Wunderground v.1.15,2013-03-25 16:47:00,
2013-03-25 12:48:00,38.7,28.3,29.67,ENE,59,3.0,10.0,66,0.00,,,0.00,Wunderground v.1.15,2013-03-25 16:48:00,
2013-03-25 12:49:00,38.6,27.5,29.67,ENE,59,3.0,10.0,64,0.00,,,0.00,Wunderground v.1.15,2013-03-25 16:49:00,
2013-03-25 12:51:00,38.4,27.3,29.67,NNE,25,3.0,10.0,64,0.00,,,0.00,Wunderground v.1.15,2013-03-25 16:51:00,
2013-03-25 12:55:00,38.1,27.4,29.67,East,98,4.0,10.0,65,0.00,,,0.00,Wunderground v.1.15,2013-03-25 16:55:00,
2013-03-25 12:56:00,38.1,27.4,29.67,NE,35,4.0,10.0,65,0.00,,,0.00,Wunderground v.1.15,2013-03-25 16:56:00,
2013-03-25 12:59:00,37.9,26.8,29.67,NE,40,4.0,10.0,64,0.00,,,0.00,Wunderground v.1.15,2013-03-25 16:59:00,
2013-03-25 13:02:00,37.9,27.5,29.68,East,98,4.0,10.0,66,0.00,,,0.00,Wunderground v.1.15,2013-03-25 17:02:00,
2013-03-25 13:03:00,37.9,27.5,29.67,ENE,58,4.0,10.0,66,0.00,,,0.00,Wunderground v.1.15,2013-03-25 17:03:00,
2013-03-25 13:07:00,38.1,27.7,29.67,ESE,107,4.0,10.0,66,0.00,,,0.00,Wunderground v.1.15,2013-03-25 17:07:00,
2013-03-25 13:11:00,38.3,27.9,29.67,East,101,3.0,10.0,66,0.00,,,0.00,Wunderground v.1.15,2013-03-25 17:11:00,
2013-03-25 13:12:00,38.3,27.9,29.67,ENE,78,3.0,10.0,66,0.00,,,0.00,Wunderground v.1.15,2013-03-25 17:12:00,
2013-03-25 13:13:00,38.3,27.9,29.67,East,89,3.0,10.0,66,0.00,,,0.00,Wunderground v.1.15,2013-03-25 17:13:00,
2013-03-25 13:14:00,38.2,27.8,29.67,ENE,70,4.0,10.0,66,0.00,,,0.00,Wunderground v.1.15,2013-03-25 17:14:00,
2013-03-25 13:17:00,38.3,27.6,29.67,NNE,12,3.0,10.0,65,0.00,,,0.00,Wunderground v.1.15,2013-03-25 17:17:00,
2013-03-25 13:20:00,38.7,28.3,29.67,NE,40,3.0,10.0,66,0.00,,,0.00,Wunderground v.1.15,2013-03-25 17:20:00,
2013-03-25 13:21:00,38.7,28.3,29.67,NNE,20,3.0,10.0,66,0.00,,,0.00,Wunderground v.1.15,2013-03-25 17:21:00,
2013-03-25 13:22:00,38.7,27.9,29.67,NE,48,3.0,10.0,65,0.00,,,0.00,Wunderground v.1.15,2013-03-25 17:22:00,
2013-03-25 13:26:00,38.5,27.4,29.67,East,79,3.0,10.0,64,0.00,,,0.00,Wunderground v.1.15,2013-03-25 17:26:00,
2013-03-25 13:28:00,38.3,27.2,29.67,ENE,76,3.0,10.0,64,0.00,,,0.00,Wunderground v.1.15,2013-03-25 17:28:00,
2013-03-25 13:29:00,38.1,27.0,29.67,ENE,64,3.0,10.0,64,0.00,,,0.00,Wunderground v.1.15,2013-03-25 17:29:00,
2013-03-25 13:31:00,38.0,27.3,29.67,ENE,65,4.0,10.0,65,0.00,,,0.00,Wunderground v.1.15,2013-03-25 17:31:00,
2013-03-25 13:32:00,38.1,27.7,29.67,NNW,345,3.0,10.0,66,0.00,,,0.00,Wunderground v.1.15,2013-03-25 17:32:00,
2013-03-25 13:37:00,38.3,28.3,29.67,NE,51,4.0,10.0,67,0.00,,,0.00,Wunderground v.1.15,2013-03-25 17:37:00,
2013-03-25 13:40:00,38.2,27.5,29.67,ESE,108,4.0,10.0,65,0.00,,,0.00,Wunderground v.1.15,2013-03-25 17:40:00,
2013-03-25 13:42:00,38.1,27.4,29.67,NE,42,4.0,10.0,65,0.00,,,0.00,Wunderground v.1.15,2013-03-25 17:42:00,
2013-03-25 13:45:00,38.3,28.7,29.67,WNW,290,4.0,10.0,68,0.00,,,0.00,Wunderground v.1.15,2013-03-25 17:45:00,
2013-03-25 13:47:00,38.5,29.2,29.67,NNW,327,4.0,10.0,69,0.00,,,0.00,Wunderground v.1.15,2013-03-25 17:47:00,
2013-03-25 13:48:00,38.7,29.4,29.67,East,101,3.0,10.0,69,0.00,,,0.00,Wunderground v.1.15,2013-03-25 17:48:00,
2013-03-25 13:51:00,39.0,29.3,29.67,East,93,3.0,10.0,68,0.00,,,0.00,Wunderground v.1.15,2013-03-25 17:51:00,
2013-03-25 13:52:00,38.9,28.9,29.67,ENE,73,3.0,10.0,67,0.00,,,0.00,Wunderground v.1.15,2013-03-25 17:52:00,
2013-03-25 13:54:00,38.5,28.5,29.67,ENE,62,4.0,10.0,67,0.00,,,0.00,Wunderground v.1.15,2013-03-25 17:54:00,
2013-03-25 13:56:00,38.3,28.7,29.67,ENE,60,4.0,10.0,68,0.00,,,0.00,Wunderground v.1.15,2013-03-25 17:56:00,
2013-03-25 13:58:00,38.2,28.9,29.67,ESE,108,5.0,10.0,69,0.00,,,0.00,Wunderground v.1.15,2013-03-25 17:58:00,
2013-03-25 14:03:00,38.4,29.1,29.67,ENE,67,4.0,10.0,69,0.00,,,0.00,Wunderground v.1.15,2013-03-25 18:03:00,
2013-03-25 14:05:00,38.3,28.3,29.67,ENE,64,4.0,10.0,67,0.00,,,0.00,Wunderground v.1.15,2013-03-25 18:05:00,
2013-03-25 14:07:00,38.1,28.5,29.67,ESE,104,4.0,10.0,68,0.00,,,0.00,Wunderground v.1.15,2013-03-25 18:07:00,
2013-03-25 14:08:00,38.0,28.7,29.67,ENE,69,4.0,10.0,69,0.00,,,0.00,Wunderground v.1.15,2013-03-25 18:08:00,
2013-03-25 14:10:00,37.9,28.6,29.67,ENE,57,4.0,10.0,69,0.00,,,0.00,Wunderground v.1.15,2013-03-25 18:10:00,
2013-03-25 14:12:00,37.9,29.0,29.67,ENE,69,4.0,10.0,70,0.00,,,0.00,Wunderground v.1.15,2013-03-25 18:12:00,
2013-03-25 14:14:00,37.8,28.5,29.67,NNW,347,5.0,10.0,69,0.00,,,0.00,Wunderground v.1.15,2013-03-25 18:14:00,
2013-03-25 14:15:00,37.8,28.5,29.67,ESE,110,4.0,10.0,69,0.00,,,0.00,Wunderground v.1.15,2013-03-25 18:15:00,
2013-03-25 14:19:00,38.0,29.1,29.67,NNE,27,4.0,11.0,70,0.00,,,0.00,Wunderground v.1.15,2013-03-25 18:19:00,
2013-03-25 14:21:00,38.0,28.7,29.66,East,97,4.0,10.0,69,0.00,,,0.00,Wunderground v.1.15,2013-03-25 18:21:00,
2013-03-25 14:25:00,38.3,29.7,29.67,East,86,3.0,10.0,71,0.00,,,0.00,Wunderground v.1.15,2013-03-25 18:25:00,
2013-03-25 14:29:00,38.1,28.8,29.67,ENE,72,5.0,11.0,69,0.00,,,0.00,Wunderground v.1.15,2013-03-25 18:29:00,
2013-03-25 14:31:00,38.1,29.2,29.66,ESE,118,5.0,10.0,70,0.00,,,0.00,Wunderground v.1.15,2013-03-25 18:31:00,
2013-03-25 14:32:00,38.1,29.5,29.66,NW,326,5.0,10.0,71,0.00,,,0.00,Wunderground v.1.15,2013-03-25 18:32:00,
2013-03-25 14:34:00,38.2,28.9,29.66,NNW,343,5.0,10.0,69,0.00,,,0.00,Wunderground v.1.15,2013-03-25 18:34:00,
2013-03-25 14:37:00,38.3,29.0,29.67,West,281,5.0,10.0,69,0.00,,,0.00,Wunderground v.1.15,2013-03-25 18:37:00,
2013-03-25 14:38:00,38.1,29.2,29.66,NNE,22,4.0,10.0,70,0.00,,,0.00,Wunderground v.1.15,2013-03-25 18:38:00,
2013-03-25 14:39:00,38.0,29.1,29.67,NNW,345,4.0,10.0,70,0.00,,,0.00,Wunderground v.1.15,2013-03-25 18:39:00,
2013-03-25 14:44:00,38.0,29.1,29.66,NE,49,4.0,10.0,70,0.00,,,0.00,Wunderground v.1.15,2013-03-25 18:44:00,
2013-03-25 14:45:00,37.9,28.3,29.66,East,79,4.0,10.0,68,0.00,,,0.00,Wunderground v.1.15,2013-03-25 18:45:00,
2013-03-25 14:47:00,37.8,28.5,29.66,South,190,4.0,10.0,69,0.00,,,0.00,Wunderground v.1.15,2013-03-25 18:47:00,
2013-03-25 14:50:00,37.8,28.2,29.67,East,91,3.0,3.0,68,0.00,,,0.00,Wunderground v.1.15,2013-03-25 18:50:00,
2013-03-25 14:51:00,37.7,28.1,29.66,ENE,62,4.0,5.0,68,0.00,,,0.00,Wunderground v.1.15,2013-03-25 18:51:00,
2013-03-25 14:54:00,37.8,28.2,29.66,North,351,4.0,10.0,68,0.00,,,0.00,Wunderground v.1.15,2013-03-25 18:54:00,
2013-03-25 14:56:00,37.9,27.9,29.66,East,100,4.0,10.0,67,0.00,,,0.00,Wunderground v.1.15,2013-03-25 18:56:00,
2013-03-25 14:58:00,37.9,27.9,29.66,SSE,158,4.0,10.0,67,0.00,,,0.00,Wunderground v.1.15,2013-03-25 18:58:00,
2013-03-25 15:00:00,37.9,27.5,29.66,NE,40,4.0,4.0,66,0.00,,,0.00,Wunderground v.1.15,2013-03-25 19:00:00,
2013-03-25 15:04:00,38.1,27.4,29.66,NE,54,3.0,10.0,65,0.00,,,0.00,Wunderground v.1.15,2013-03-25 19:04:00,
2013-03-25 15:06:00,38.2,27.5,29.66,NNW,330,3.0,10.0,65,0.00,,,0.00,Wunderground v.1.15,2013-03-25 19:06:00,
2013-03-25 15:08:00,38.3,27.9,29.66,NNE,15,3.0,10.0,66,0.00,,,0.00,Wunderground v.1.15,2013-03-25 19:08:00,
2013-03-25 15:10:00,38.5,27.7,29.66,NE,54,2.0,2.0,65,0.00,,,0.00,Wunderground v.1.15,2013-03-25 19:10:00,
2013-03-25 15:14:00,38.8,27.3,29.66,East,92,2.0,10.0,63,0.00,,,0.00,Wunderground v.1.15,2013-03-25 19:14:00,
2013-03-25 15:15:00,38.8,26.9,29.66,ENE,76,2.0,10.0,62,0.00,,,0.00,Wunderground v.1.15,2013-03-25 19:15:00,
2013-03-25 15:17:00,38.6,26.3,29.66,NE,56,3.0,10.0,61,0.00,,,0.00,Wunderground v.1.15,2013-03-25 19:17:00,
2013-03-25 15:20:00,38.9,27.8,29.66,West,264,3.0,3.0,64,0.00,,,0.00,Wunderground v.1.15,2013-03-25 19:20:00,
2013-03-25 15:21:00,39.0,27.5,29.66,East,91,3.0,10.0,63,0.00,,,0.00,Wunderground v.1.15,2013-03-25 19:21:00,
2013-03-25 15:24:00,38.9,28.1,29.66,West,267,3.0,10.0,65,0.00,,,0.00,Wunderground v.1.15,2013-03-25 19:24:00,
2013-03-25 15:26:00,38.8,28.4,29.67,NE,39,3.0,10.0,66,0.00,,,0.00,Wunderground v.1.15,2013-03-25 19:26:00,
2013-03-25 15:27:00,38.8,28.0,29.67,NE,37,3.0,10.0,65,0.00,,,0.00,Wunderground v.1.15,2013-03-25 19:27:00,
2013-03-25 15:28:00,38.7,27.6,29.67,NE,38,4.0,10.0,64,0.00,,,0.00,Wunderground v.1.15,2013-03-25 19:28:00,
2013-03-25 15:32:00,38.8,28.4,29.67,East,92,4.0,10.0,66,0.00,,,0.00,Wunderground v.1.15,2013-03-25 19:32:00,
2013-03-25 15:34:00,38.8,27.7,29.67,SE,131,4.0,10.0,64,0.00,,,0.00,Wunderground v.1.15,2013-03-25 19:34:00,
2013-03-25 15:36:00,38.9,28.1,29.67,NNE,14,3.0,10.0,65,0.00,,,0.00,Wunderground v.1.15,2013-03-25 19:36:00,
2013-03-25 15:38:00,38.9,28.5,29.66,NNW,336,3.0,10.0,66,0.00,,,0.00,Wunderground v.1.15,2013-03-25 19:38:00,
2013-03-25 15:42:00,39.1,29.1,29.67,NNW,328,3.0,10.0,67,0.00,,,0.00,Wunderground v.1.15,2013-03-25 19:42:00,
2013-03-25 15:43:00,39.1,29.1,29.67,NE,55,3.0,10.0,67,0.00,,,0.00,Wunderground v.1.15,2013-03-25 19:43:00,
2013-03-25 15:44:00,39.1,29.1,29.67,West,277,3.0,10.0,67,0.00,,,0.00,Wunderground v.1.15,2013-03-25 19:44:00,
2013-03-25 15:45:00,39.2,29.2,29.67,North,6,3.0,10.0,67,0.00,,,0.00,Wunderground v.1.15,2013-03-25 19:45:00,
2013-03-25 15:47:00,39.1,29.1,29.67,NW,304,3.0,10.0,67,0.00,,,0.00,Wunderground v.1.15,2013-03-25 19:47:00,
2013-03-25 15:48:00,39.1,29.1,29.67,West,278,3.0,10.0,67,0.00,,,0.00,Wunderground v.1.15,2013-03-25 19:48:00,
2013-03-25 15:50:00,39.1,27.9,29.67,North,360,3.0,3.0,64,0.00,,,0.00,Wunderground v.1.15,2013-03-25 19:50:00,
2013-03-25 15:52:00,39.1,28.3,29.66,ENE,67,3.0,10.0,65,0.00,,,0.00,Wunderground v.1.15,2013-03-25 19:52:00,
2013-03-25 15:55:00,39.3,28.1,29.67,ENE,77,3.0,10.0,64,0.00,,,0.00,Wunderground v.1.15,2013-03-25 19:55:00,
2013-03-25 15:56:00,39.4,28.6,29.67,East,86,3.0,10.0,65,0.00,,,0.00,Wunderground v.1.15,2013-03-25 19:56:00,
2013-03-25 16:01:00,39.5,27.9,29.67,NNW,335,2.0,6.0,63,0.00,,,0.00,Wunderground v.1.15,2013-03-25 20:01:00,
2013-03-25 16:02:00,39.4,27.8,29.67,East,97,3.0,10.0,63,0.00,,,0.00,Wunderground v.1.15,2013-03-25 20:02:00,
2013-03-25 16:06:00,39.1,27.9,29.67,ENE,76,4.0,10.0,64,0.00,,,0.00,Wunderground v.1.15,2013-03-25 20:06:00,
2013-03-25 16:07:00,39.1,27.9,29.67,NE,45,4.0,10.0,64,0.00,,,0.00,Wunderground v.1.15,2013-03-25 20:07:00,
2013-03-25 16:09:00,39.1,27.9,29.67,ESE,113,5.0,10.0,64,0.00,,,0.00,Wunderground v.1.15,2013-03-25 20:09:00,
2013-03-25 16:10:00,39.1,27.9,29.67,NE,54,5.0,5.0,64,0.00,,,0.00,Wunderground v.1.15,2013-03-25 20:10:00,
2013-03-25 16:11:00,39.1,28.3,29.67,North,11,5.0,6.0,65,0.00,,,0.00,Wunderground v.1.15,2013-03-25 20:11:00,
2013-03-25 16:15:00,39.3,28.9,29.67,NNW,335,3.0,10.0,66,0.00,,,0.00,Wunderground v.1.15,2013-03-25 20:15:00,
2013-03-25 16:17:00,39.3,28.9,29.67,ENE,63,3.0,10.0,66,0.00,,,0.00,Wunderground v.1.15,2013-03-25 20:17:00,
2013-03-25 16:19:00,39.2,28.8,29.67,NE,51,3.0,10.0,66,0.00,,,0.00,Wunderground v.1.15,2013-03-25 20:19:00,
2013-03-25 16:20:00,39.1,28.7,29.67,ENE,63,3.0,3.0,66,0.00,,,0.00,Wunderground v.1.15,2013-03-25 20:20:00,
2013-03-25 16:23:00,39.1,28.7,29.67,NNE,32,3.0,10.0,66,0.00,,,0.00,Wunderground v.1.15,2013-03-25 20:23:00,
2013-03-25 16:24:00,39.1,29.1,29.67,ESE,114,3.0,10.0,67,0.00,,,0.00,Wunderground v.1.15,2013-03-25 20:24:00,
2013-03-25 16:25:00,39.2,29.2,29.67,East,98,3.0,10.0,67,0.00,,,0.00,Wunderground v.1.15,2013-03-25 20:25:00,
2013-03-25 16:27:00,39.0,28.6,29.67,NE,45,4.0,10.0,66,0.00,,,0.00,Wunderground v.1.15,2013-03-25 20:27:00,
2013-03-25 16:28:00,39.0,29.0,29.67,East,79,4.0,10.0,67,0.00,,,0.00,Wunderground v.1.15,2013-03-25 20:28:00,
2013-03-25 16:31:00,39.1,28.7,29.67,NNE,30,4.0,10.0,66,0.00,,,0.00,Wunderground v.1.15,2013-03-25 20:31:00,
2013-03-25 16:34:00,39.2,29.2,29.67,East,95,4.0,10.0,67,0.00,,,0.00,Wunderground v.1.15,2013-03-25 20:34:00,
2013-03-25 16:36:00,39.2,29.5,29.67,East,93,4.0,10.0,68,0.00,,,0.00,Wunderground v.1.15,2013-03-25 20:36:00,
2013-03-25 16:37:00,39.2,29.5,29.67,ESE,106,4.0,14.0,68,0.00,,,0.00,Wunderground v.1.15,2013-03-25 20:37:00,
2013-03-25 16:41:00,39.0,29.0,29.67,East,87,5.0,12.0,67,0.00,,,0.00,Wunderground v.1.15,2013-03-25 20:41:00,
2013-03-25 16:42:00,38.9,28.9,29.67,WNW,284,5.0,12.0,67,0.00,,,0.00,Wunderground v.1.15,2013-03-25 20:42:00,
2013-03-25 16:43:00,38.9,28.9,29.67,ESE,120,5.0,12.0,67,0.00,,,0.00,Wunderground v.1.15,2013-03-25 20:43:00,
2013-03-25 16:45:00,39.0,29.3,29.67,WNW,301,5.0,12.0,68,0.00,,,0.00,Wunderground v.1.15,2013-03-25 20:45:00,
2013-03-25 16:46:00,39.0,29.3,29.67,NNW,346,5.0,12.0,68,0.00,,,0.00,Wunderground v.1.15,2013-03-25 20:46:00,
2013-03-25 16:47:00,39.1,29.1,29.67,NE,39,5.0,12.0,67,0.00,,,0.00,Wunderground v.1.15,2013-03-25 20:47:00,
2013-03-25 16:50:00,39.1,29.4,29.67,West,281,5.0,5.0,68,0.00,,,0.00,Wunderground v.1.15,2013-03-25 20:50:00,
2013-03-25 16:52:00,39.2,29.9,29.68,East,79,4.0,10.0,69,0.00,,,0.00,Wunderground v.1.15,2013-03-25 20:52:00,
2013-03-25 16:53:00,39.2,29.9,29.67,NE,40,4.0,10.0,69,0.00,,,0.00,Wunderground v.1.15,2013-03-25 20:53:00,
2013-03-25 16:56:00,39.2,29.9,29.68,NW,312,4.0,10.0,69,0.00,,,0.00,Wunderground v.1.15,2013-03-25 20:56:00,
2013-03-25 16:57:00,39.1,29.8,29.68,East,98,4.0,10.0,69,0.00,,,0.00,Wunderground v.1.15,2013-03-25 20:57:00,
2013-03-25 17:01:00,39.4,30.4,29.68,NE,42,3.0,10.0,70,0.00,,,0.00,Wunderground v.1.15,2013-03-25 21:01:00,
2013-03-25 17:02:00,39.4,30.4,29.68,ESE,111,4.0,10.0,70,0.00,,,0.00,Wunderground v.1.15,2013-03-25 21:02:00,
2013-03-25 17:03:00,39.5,30.5,29.68,NNE,33,4.0,10.0,70,0.00,,,0.00,Wunderground v.1.15,2013-03-25 21:03:00,
2013-03-25 17:04:00,39.5,30.5,29.68,SSE,150,3.0,10.0,70,0.00,,,0.00,Wunderground v.1.15,2013-03-25 21:04:00,
2013-03-25 17:07:00,39.6,30.6,29.68,NNE,28,2.0,10.0,70,0.00,,,0.00,Wunderground v.1.15,2013-03-25 21:07:00,
2013-03-25 17:12:00,39.4,30.4,29.68,WNW,302,3.0,10.0,70,0.00,,,0.00,Wunderground v.1.15,2013-03-25 21:12:00,
2013-03-25 17:14:00,39.3,30.3,29.68,NE,44,4.0,10.0,70,0.00,,,0.00,Wunderground v.1.15,2013-03-25 21:14:00,
2013-03-25 17:15:00,39.1,30.1,29.68,ENE,59,4.0,10.0,70,0.00,,,0.00,Wunderground v.1.15,2013-03-25 21:15:00,
2013-03-25 17:16:00,39.0,30.4,29.68,ENE,78,5.0,10.0,71,0.00,,,0.00,Wunderground v.1.15,2013-03-25 21:16:00,
2013-03-25 17:17:00,38.9,30.3,29.68,East,101,5.0,10.0,71,0.00,,,0.00,Wunderground v.1.15,2013-03-25 21:17:00,
2013-03-25 17:20:00,38.8,30.5,29.68,ENE,74,6.0,10.0,72,0.00,,,0.00,Wunderground v.1.15,2013-03-25 21:20:00,
2013-03-25 17:22:00,38.8,30.5,29.68,NW,321,5.0,10.0,72,0.00,,,0.00,Wunderground v.1.15,2013-03-25 21:22:00,
2013-03-25 17:23:00,38.9,30.6,29.68,East,84,5.0,10.0,72,0.00,,,0.00,Wunderground v.1.15,2013-03-25 21:23:00,
2013-03-25 17:26:00,38.8,30.5,29.68,NNE,23,4.0,10.0,72,0.00,,,0.00,Wunderground v.1.15,2013-03-25 21:26:00,
2013-03-25 17:27:00,38.8,30.5,29.68,NE,53,4.0,10.0,72,0.00,,,0.00,Wunderground v.1.15,2013-03-25 21:27:00,
2013-03-25 17:31:00,38.8,30.2,29.68,ESE,104,4.0,10.0,71,0.00,,,0.00,Wunderground v.1.15,2013-03-25 21:31:00,
2013-03-25 17:32:00,38.8,30.5,29.68,ESE,117,3.0,10.0,72,0.00,,,0.00,Wunderground v.1.15,2013-03-25 21:32:00,
2013-03-25 17:33:00,38.8,30.5,29.68,East,86,3.0,10.0,72,0.00,,,0.00,Wunderground v.1.15,2013-03-25 21:33:00,
2013-03-25 17:35:00,38.8,30.2,29.68,NNW,347,3.0,10.0,71,0.00,,,0.00,Wunderground v.1.15,2013-03-25 21:35:00,
2013-03-25 17:37:00,38.8,30.2,29.68,SW,214,3.0,10.0,71,0.00,,,0.00,Wunderground v.1.15,2013-03-25 21:37:00,
2013-03-25 17:38:00,38.8,30.2,29.68,NNW,333,3.0,10.0,71,0.00,,,0.00,Wunderground v.1.15,2013-03-25 21:38:00,
2013-03-25 17:40:00,38.8,30.2,29.68,North,11,3.0,10.0,71,0.00,,,0.00,Wunderground v.1.15,2013-03-25 21:40:00,
2013-03-25 17:43:00,38.7,30.4,29.68,NNE,18,3.0,10.0,72,0.00,,,0.00,Wunderground v.1.15,2013-03-25 21:43:00,
2013-03-25 17:46:00,38.6,30.7,29.68,NNW,342,3.0,10.0,73,0.00,,,0.00,Wunderground v.1.15,2013-03-25 21:46:00,
2013-03-25 17:47:00,38.6,30.7,29.68,NNE,31,4.0,10.0,73,0.00,,,0.00,Wunderground v.1.15,2013-03-25 21:47:00,
2013-03-25 17:48:00,38.5,30.6,29.69,NNE,22,4.0,10.0,73,0.00,,,0.00,Wunderground v.1.15,2013-03-25 21:48:00,
2013-03-25 17:50:00,38.5,30.9,29.69,NNW,335,4.0,4.0,74,0.00,,,0.00,Wunderground v.1.15,2013-03-25 21:50:00,
2013-03-25 17:52:00,38.5,30.9,29.69,NW,318,3.0,10.0,74,0.00,,,0.00,Wunderground v.1.15,2013-03-25 21:52:00,
2013-03-25 17:53:00,38.5,30.9,29.69,NNW,340,3.0,10.0,74,0.00,,,0.00,Wunderground v.1.15,2013-03-25 21:53:00,
2013-03-25 17:55:00,38.5,30.6,29.69,NNW,348,3.0,10.0,73,0.00,,,0.00,Wunderground v.1.15,2013-03-25 21:55:00,
2013-03-25 17:58:00,38.4,30.8,29.69,North,358,3.0,10.0,74,0.00,,,0.00,Wunderground v.1.15,2013-03-25 21:58:00,
2013-03-25 18:02:00,38.3,30.7,29.69,NW,309,3.0,10.0,74,0.00,,,0.00,Wunderground v.1.15,2013-03-25 22:02:00,
2013-03-25 18:03:00,38.3,30.7,29.69,NE,36,3.0,10.0,74,0.00,,,0.00,Wunderground v.1.15,2013-03-25 22:03:00,
2013-03-25 18:08:00,38.2,30.3,29.69,NNW,335,3.0,10.0,73,0.00,,,0.00,Wunderground v.1.15,2013-03-25 22:08:00,
2013-03-25 18:09:00,38.2,30.3,29.69,NNW,337,3.0,10.0,73,0.00,,,0.00,Wunderground v.1.15,2013-03-25 22:09:00,
2013-03-25 18:10:00,38.2,30.6,29.69,NNW,338,3.0,10.0,74,0.00,,,0.00,Wunderground v.1.15,2013-03-25 22:10:00,
2013-03-25 18:13:00,38.1,30.2,29.70,NW,321,3.0,10.0,73,0.00,,,0.00,Wunderground v.1.15,2013-03-25 22:13:00,
2013-03-25 18:14:00,38.1,30.5,29.70,North,357,3.0,10.0,74,0.00,,,0.00,Wunderground v.1.15,2013-03-25 22:14:00,
2013-03-25 18:15:00,38.1,30.2,29.70,NNE,20,3.0,10.0,73,0.00,,,0.00,Wunderground v.1.15,2013-03-25 22:15:00,
2013-03-25 18:17:00,38.1,29.9,29.70,ENE,77,3.0,10.0,72,0.00,,,0.00,Wunderground v.1.15,2013-03-25 22:17:00,
2013-03-25 18:18:00,38.0,29.8,29.70,NE,51,3.0,10.0,72,0.00,,,0.00,Wunderground v.1.15,2013-03-25 22:18:00,
2013-03-25 18:20:00,37.9,29.7,29.70,WNW,295,3.0,3.0,72,0.00,,,0.00,Wunderground v.1.15,2013-03-25 22:20:00,
2013-03-25 18:23:00,37.9,30.0,29.70,NNW,347,3.0,10.0,73,0.00,,,0.00,Wunderground v.1.15,2013-03-25 22:23:00,
2013-03-25 18:26:00,37.9,30.0,29.70,NE,54,2.0,10.0,73,0.00,,,0.00,Wunderground v.1.15,2013-03-25 22:26:00,
2013-03-25 18:29:00,37.9,30.0,29.70,East,98,2.0,10.0,73,0.00,,,0.00,Wunderground v.1.15,2013-03-25 22:29:00,
2013-03-25 18:32:00,37.9,30.0,29.70,ENE,75,2.0,10.0,73,0.00,,,0.00,Wunderground v.1.15,2013-03-25 22:32:00,
2013-03-25 18:33:00,37.8,29.9,29.71,NW,304,1.0,10.0,73,0.00,,,0.00,Wunderground v.1.15,2013-03-25 22:33:00,
2013-03-25 18:35:00,37.8,29.9,29.71,NW,318,2.0,10.0,73,0.00,,,0.00,Wunderground v.1.15,2013-03-25 22:35:00,
2013-03-25 18:37:00,37.7,29.8,29.71,NNE,29,2.0,10.0,73,0.00,,,0.00,Wunderground v.1.15,2013-03-25 22:37:00,
2013-03-25 18:38:00,37.7,29.8,29.71,ENE,77,2.0,10.0,73,0.00,,,0.00,Wunderground v.1.15,2013-03-25 22:38:00,
2013-03-25 18:39:00,37.7,29.8,29.71,ENE,68,1.0,10.0,73,0.00,,,0.00,Wunderground v.1.15,2013-03-25 22:39:00,
2013-03-25 18:40:00,37.7,30.2,29.71,NW,323,1.0,10.0,74,0.00,,,0.00,Wunderground v.1.15,2013-03-25 22:40:00,
2013-03-25 18:42:00,37.6,30.1,29.71,NNE,21,2.0,10.0,74,0.00,,,0.00,Wunderground v.1.15,2013-03-25 22:42:00,
2013-03-25 18:45:00,37.6,30.1,29.71,NNW,343,1.0,10.0,74,0.00,,,0.00,Wunderground v.1.15,2013-03-25 22:45:00,
2013-03-25 18:46:00,37.5,30.0,29.72,NNE,12,1.0,10.0,74,0.00,,,0.00,Wunderground v.1.15,2013-03-25 22:46:00,
2013-03-25 18:50:00,37.4,29.9,29.72,ENE,63,2.0,10.0,74,0.00,,,0.00,Wunderground v.1.15,2013-03-25 22:50:00,
2013-03-25 18:51:00,37.4,29.9,29.72,East,87,2.0,10.0,74,0.00,,,0.00,Wunderground v.1.15,2013-03-25 22:51:00,
2013-03-25 18:52:00,37.3,29.8,29.72,East,87,2.0,10.0,74,0.00,,,0.00,Wunderground v.1.15,2013-03-25 22:52:00,
2013-03-25 18:55:00,37.3,30.1,29.72,NE,56,1.0,10.0,75,0.00,,,0.00,Wunderground v.1.15,2013-03-25 22:55:00,
2013-03-25 18:59:00,37.2,29.7,29.72,NW,307,2.0,10.0,74,0.00,,,0.00,Wunderground v.1.15,2013-03-25 22:59:00,
2013-03-25 19:00:00,37.1,29.6,29.72,NNW,345,2.0,10.0,74,0.00,,,0.00,Wunderground v.1.15,2013-03-25 23:00:00,
2013-03-25 19:02:00,37.1,29.6,29.72,East,89,2.0,10.0,74,0.00,,,0.00,Wunderground v.1.15,2013-03-25 23:02:00,
2013-03-25 19:05:00,37.0,29.5,29.72,NNE,13,2.0,10.0,74,0.00,,,0.00,Wunderground v.1.15,2013-03-25 23:05:00,
2013-03-25 19:09:00,36.9,29.4,29.72,East,85,2.0,10.0,74,0.00,,,0.00,Wunderground v.1.15,2013-03-25 23:09:00,
2013-03-25 19:10:00,36.9,29.4,29.72,NW,319,2.0,2.0,74,0.00,,,0.00,Wunderground v.1.15,2013-03-25 23:10:00,
2013-03-25 19:12:00,36.9,29.4,29.72,SW,226,2.0,10.0,74,0.00,,,0.00,Wunderground v.1.15,2013-03-25 23:12:00,
2013-03-25 19:14:00,36.8,29.6,29.72,NNW,329,1.0,10.0,75,0.00,,,0.00,Wunderground v.1.15,2013-03-25 23:14:00,
2013-03-25 19:15:00,36.8,29.6,29.72,NNW,329,1.0,10.0,75,0.00,,,0.00,Wunderground v.1.15,2013-03-25 23:15:00,
2013-03-25 19:17:00,36.7,29.5,29.72,NNW,337,2.0,10.0,75,0.00,,,0.00,Wunderground v.1.15,2013-03-25 23:17:00,
2013-03-25 19:20:00,36.6,29.4,29.72,NNE,15,1.0,10.0,75,0.00,,,0.00,Wunderground v.1.15,2013-03-25 23:20:00,
2013-03-25 19:22:00,36.6,29.4,29.73,NNW,345,1.0,10.0,75,0.00,,,0.00,Wunderground v.1.15,2013-03-25 23:22:00,
2013-03-25 19:25:00,36.5,29.3,29.73,NNE,26,2.0,10.0,75,0.00,,,0.00,Wunderground v.1.15,2013-03-25 23:25:00,
2013-03-25 19:26:00,36.5,29.3,29.73,ENE,77,2.0,10.0,75,0.00,,,0.00,Wunderground v.1.15,2013-03-25 23:26:00,
2013-03-25 19:27:00,36.5,29.3,29.73,NE,37,1.0,10.0,75,0.00,,,0.00,Wunderground v.1.15,2013-03-25 23:27:00,
2013-03-25 19:31:00,36.4,29.2,29.73,NNW,328,1.0,10.0,75,0.00,,,0.00,Wunderground v.1.15,2013-03-25 23:31:00,
2013-03-25 19:33:00,36.3,29.1,29.73,NNW,338,1.0,10.0,75,0.00,,,0.00,Wunderground v.1.15,2013-03-25 23:33:00,
2013-03-25 19:34:00,36.3,29.1,29.73,NNW,338,1.0,10.0,75,0.00,,,0.00,Wunderground v.1.15,2013-03-25 23:34:00,
2013-03-25 19:36:00,36.2,29.0,29.73,NNE,15,0.0,10.0,75,0.00,,,0.00,Wunderground v.1.15,2013-03-25 23:36:00,
2013-03-25 19:39:00,36.2,29.0,29.73,NNW,348,1.0,10.0,75,0.00,,,0.00,Wunderground v.1.15,2013-03-25 23:39:00,
2013-03-25 19:40:00,36.1,29.3,29.73,NNW,335,1.0,1.0,76,0.00,,,0.00,Wunderground v.1.15,2013-03-25 23:40:00,
2013-03-25 19:41:00,36.1,29.3,29.73,NNW,336,1.0,10.0,76,0.00,,,0.00,Wunderground v.1.15,2013-03-25 23:41:00,
2013-03-25 19:45:00,36.0,29.2,29.73,NNW,335,0.0,10.0,76,0.00,,,0.00,Wunderground v.1.15,2013-03-25 23:45:00,
2013-03-25 19:47:00,35.9,29.1,29.73,NNW,335,0.0,10.0,76,0.00,,,0.00,Wunderground v.1.15,2013-03-25 23:47:00,
2013-03-25 19:48:00,35.9,29.1,29.73,NNW,335,0.0,10.0,76,0.00,,,0.00,Wunderground v.1.15,2013-03-25 23:48:00,
2013-03-25 19:50:00,35.7,28.9,29.73,NNW,333,0.0,10.0,76,0.00,,,0.00,Wunderground v.1.15,2013-03-25 23:50:00,
2013-03-25 19:56:00,35.5,29.0,29.73,NW,312,0.0,10.0,77,0.00,,,0.00,Wunderground v.1.15,2013-03-25 23:56:00,
2013-03-25 19:57:00,35.5,29.0,29.73,NW,311,0.0,10.0,77,0.00,,,0.00,Wunderground v.1.15,2013-03-25 23:57:00,
2013-03-25 19:58:00,35.5,29.0,29.73,NW,312,0.0,10.0,77,0.00,,,0.00,Wunderground v.1.15,2013-03-25 23:58:00,
2013-03-25 19:59:00,35.5,29.0,29.73,NW,312,0.0,10.0,77,0.00,,,0.00,Wunderground v.1.15,2013-03-25 23:59:00,
2013-03-25 20:03:00,35.3,28.8,29.73,NW,312,0.0,10.0,77,0.00,,,0.00,Wunderground v.1.15,2013-03-26 00:03:00,
2013-03-25 20:04:00,35.3,28.8,29.73,NW,312,0.0,10.0,77,0.00,,,0.00,Wunderground v.1.15,2013-03-26 00:04:00,
2013-03-25 20:06:00,35.2,29.0,29.74,NW,311,0.0,10.0,78,0.00,,,0.00,Wunderground v.1.15,2013-03-26 00:06:00,
2013-03-25 20:10:00,35.1,28.9,29.74,NW,312,0.0,10.0,78,0.00,,,0.00,Wunderground v.1.15,2013-03-26 00:10:00,
2013-03-25 20:11:00,35.1,28.9,29.74,NW,312,0.0,10.0,78,0.00,,,0.00,Wunderground v.1.15,2013-03-26 00:11:00,
2013-03-25 20:12:00,35.0,28.8,29.74,NW,312,0.0,10.0,78,0.00,,,0.00,Wunderground v.1.15,2013-03-26 00:12:00,
2013-03-25 20:15:00,34.9,28.7,29.74,NW,311,0.0,10.0,78,0.00,,,0.00,Wunderground v.1.15,2013-03-26 00:15:00,
2013-03-25 20:16:00,34.9,28.7,29.74,NW,311,0.0,10.0,78,0.00,,,0.00,Wunderground v.1.15,2013-03-26 00:16:00,
2013-03-25 20:20:00,34.7,28.9,29.74,NW,312,0.0,10.0,79,0.00,,,0.00,Wunderground v.1.15,2013-03-26 00:20:00,
2013-03-25 20:22:00,34.6,28.8,29.74,NW,312,0.0,10.0,79,0.00,,,0.00,Wunderground v.1.15,2013-03-26 00:22:00,
2013-03-25 20:23:00,34.5,28.7,29.74,NW,312,0.0,10.0,79,0.00,,,0.00,Wunderground v.1.15,2013-03-26 00:23:00,
2013-03-25 20:25:00,34.5,28.7,29.74,NW,312,0.0,10.0,79,0.00,,,0.00,Wunderground v.1.15,2013-03-26 00:25:00,
2013-03-25 20:27:00,34.4,28.6,29.73,NW,312,0.0,10.0,79,0.00,,,0.00,Wunderground v.1.15,2013-03-26 00:27:00,
2013-03-25 20:28:00,34.3,28.5,29.74,NW,312,0.0,10.0,79,0.00,,,0.00,Wunderground v.1.15,2013-03-26 00:28:00,
2013-03-25 20:30:00,34.2,28.7,29.74,NW,312,0.0,10.0,80,0.00,,,0.00,Wunderground v.1.15,2013-03-26 00:30:00,
2013-03-25 20:31:00,34.2,28.7,29.74,NW,312,0.0,10.0,80,0.00,,,0.00,Wunderground v.1.15,2013-03-26 00:31:00,
2013-03-25 20:33:00,34.1,28.6,29.74,NW,311,0.0,10.0,80,0.00,,,0.00,Wunderground v.1.15,2013-03-26 00:33:00,
2013-03-25 20:36:00,34.0,28.8,29.74,NW,312,0.0,10.0,81,0.00,,,0.00,Wunderground v.1.15,2013-03-26 00:36:00,
2013-03-25 20:37:00,34.0,28.8,29.74,NW,312,0.0,10.0,81,0.00,,,0.00,Wunderground v.1.15,2013-03-26 00:37:00,
2013-03-25 20:38:00,34.0,28.8,29.74,NW,312,0.0,10.0,81,0.00,,,0.00,Wunderground v.1.15,2013-03-26 00:38:00,
2013-03-25 20:40:00,33.9,28.7,29.74,NW,312,0.0,10.0,81,0.00,,,0.00,Wunderground v.1.15,2013-03-26 00:40:00,
2013-03-25 20:44:00,33.7,28.5,29.74,NW,311,0.0,10.0,81,0.00,,,0.00,Wunderground v.1.15,2013-03-26 00:44:00,
2013-03-25 20:46:00,33.7,28.5,29.74,NW,311,0.0,10.0,81,0.00,,,0.00,Wunderground v.1.15,2013-03-26 00:46:00,
2013-03-25 20:47:00,33.7,28.5,29.74,NW,312,0.0,10.0,81,0.00,,,0.00,Wunderground v.1.15,2013-03-26 00:47:00,
2013-03-25 20:49:00,33.6,28.7,29.74,NW,312,0.0,10.0,82,0.00,,,0.00,Wunderground v.1.15,2013-03-26 00:49:00,
2013-03-25 20:51:00,33.6,28.7,29.74,NW,311,0.0,10.0,82,0.00,,,0.00,Wunderground v.1.15,2013-03-26 00:51:00,
2013-03-25 20:53:00,33.6,28.7,29.74,NW,312,0.0,10.0,82,0.00,,,0.00,Wunderground v.1.15,2013-03-26 00:53:00,
2013-03-25 20:58:00,33.5,28.6,29.75,NW,312,0.0,10.0,82,0.00,,,0.00,Wunderground v.1.15,2013-03-26 00:58:00,
2013-03-25 21:01:00,33.4,28.5,29.75,NW,312,0.0,10.0,82,0.00,,,0.00,Wunderground v.1.15,2013-03-26 01:01:00,
2013-03-25 21:05:00,33.3,28.4,29.75,NW,312,0.0,10.0,82,0.00,,,0.00,Wunderground v.1.15,2013-03-26 01:05:00,
2013-03-25 21:06:00,33.2,28.3,29.75,NW,312,0.0,10.0,82,0.00,,,0.00,Wunderground v.1.15,2013-03-26 01:06:00,
2013-03-25 21:08:00,33.2,28.3,29.75,NW,311,0.0,10.0,82,0.00,,,0.00,Wunderground v.1.15,2013-03-26 01:08:00,
2013-03-25 21:11:00,33.1,28.5,29.75,WNW,294,0.0,10.0,83,0.00,,,0.00,Wunderground v.1.15,2013-03-26 01:11:00,
2013-03-25 21:12:00,33.1,28.5,29.75,WNW,293,0.0,10.0,83,0.00,,,0.00,Wunderground v.1.15,2013-03-26 01:12:00,
2013-03-25 21:14:00,33.0,28.4,29.75,WNW,294,0.0,10.0,83,0.00,,,0.00,Wunderground v.1.15,2013-03-26 01:14:00,
2013-03-25 21:16:00,33.0,28.4,29.75,WNW,294,0.0,10.0,83,0.00,,,0.00,Wunderground v.1.15,2013-03-26 01:16:00,
2013-03-25 21:17:00,33.0,28.4,29.75,WNW,294,0.0,10.0,83,0.00,,,0.00,Wunderground v.1.15,2013-03-26 01:17:00,
2013-03-25 21:19:00,32.9,28.3,29.75,WNW,294,0.0,10.0,83,0.00,,,0.00,Wunderground v.1.15,2013-03-26 01:19:00,
2013-03-25 21:21:00,32.9,28.3,29.75,WNW,294,0.0,10.0,83,0.00,,,0.00,Wunderground v.1.15,2013-03-26 01:21:00,
2013-03-25 21:22:00,32.9,28.3,29.75,WNW,294,0.0,10.0,83,0.00,,,0.00,Wunderground v.1.15,2013-03-26 01:22:00,
2013-03-25 21:23:00,32.9,28.3,29.75,WNW,294,0.0,10.0,83,0.00,,,0.00,Wunderground v.1.15,2013-03-26 01:23:00,
2013-03-25 21:24:00,32.9,28.3,29.75,WNW,294,0.0,10.0,83,0.00,,,0.00,Wunderground v.1.15,2013-03-26 01:24:00,
2013-03-25 21:27:00,32.9,28.3,29.75,WNW,294,0.0,10.0,83,0.00,,,0.00,Wunderground v.1.15,2013-03-26 01:27:00,
2013-03-25 21:28:00,32.9,28.3,29.75,WNW,294,0.0,10.0,83,0.00,,,0.00,Wunderground v.1.15,2013-03-26 01:28:00,
2013-03-25 21:29:00,32.9,28.3,29.75,WNW,293,0.0,10.0,83,0.00,,,0.00,Wunderground v.1.15,2013-03-26 01:29:00,
2013-03-25 21:31:00,32.8,28.2,29.75,WNW,294,0.0,10.0,83,0.00,,,0.00,Wunderground v.1.15,2013-03-26 01:31:00,
2013-03-25 21:34:00,32.8,28.2,29.75,WNW,293,0.0,10.0,83,0.00,,,0.00,Wunderground v.1.15,2013-03-26 01:34:00,
2013-03-25 21:36:00,32.8,28.2,29.75,WNW,293,0.0,10.0,83,0.00,,,0.00,Wunderground v.1.15,2013-03-26 01:36:00,
2013-03-25 21:38:00,32.7,28.1,29.75,WNW,294,0.0,10.0,83,0.00,,,0.00,Wunderground v.1.15,2013-03-26 01:38:00,
2013-03-25 21:39:00,32.7,28.1,29.75,WNW,294,0.0,10.0,83,0.00,,,0.00,Wunderground v.1.15,2013-03-26 01:39:00,
2013-03-25 21:40:00,32.7,28.1,29.75,WNW,294,0.0,10.0,83,0.00,,,0.00,Wunderground v.1.15,2013-03-26 01:40:00,
2013-03-25 21:46:00,32.4,27.8,29.75,WNW,293,0.0,10.0,83,0.00,,,0.00,Wunderground v.1.15,2013-03-26 01:46:00,
2013-03-25 21:47:00,32.4,28.1,29.75,WNW,294,0.0,10.0,84,0.00,,,0.00,Wunderground v.1.15,2013-03-26 01:47:00,
2013-03-25 21:50:00,32.4,28.1,29.75,WNW,294,0.0,10.0,84,0.00,,,0.00,Wunderground v.1.15,2013-03-26 01:50:00,
2013-03-25 21:51:00,32.4,28.1,29.75,WNW,294,0.0,10.0,84,0.00,,,0.00,Wunderground v.1.15,2013-03-26 01:51:00,
2013-03-25 21:53:00,32.3,28.0,29.75,WNW,294,0.0,10.0,84,0.00,,,0.00,Wunderground v.1.15,2013-03-26 01:53:00,
2013-03-25 21:56:00,32.3,28.0,29.76,WNW,294,0.0,10.0,84,0.00,,,0.00,Wunderground v.1.15,2013-03-26 01:56:00,
2013-03-25 21:57:00,32.3,28.0,29.76,WNW,294,0.0,10.0,84,0.00,,,0.00,Wunderground v.1.15,2013-03-26 01:57:00,
2013-03-25 22:01:00,32.2,27.9,29.76,WNW,294,0.0,10.0,84,0.00,,,0.00,Wunderground v.1.15,2013-03-26 02:01:00,
2013-03-25 22:02:00,32.2,27.9,29.76,WNW,294,0.0,10.0,84,0.00,,,0.00,Wunderground v.1.15,2013-03-26 02:02:00,
2013-03-25 22:05:00,32.2,27.9,29.75,WNW,294,0.0,10.0,84,0.00,,,0.00,Wunderground v.1.15,2013-03-26 02:05:00,
2013-03-25 22:06:00,32.1,27.8,29.75,WNW,293,0.0,10.0,84,0.00,,,0.00,Wunderground v.1.15,2013-03-26 02:06:00,
2013-03-25 22:07:00,32.2,27.9,29.75,WNW,293,0.0,10.0,84,0.00,,,0.00,Wunderground v.1.15,2013-03-26 02:07:00,
2013-03-25 22:11:00,32.1,27.8,29.75,WNW,294,0.0,10.0,84,0.00,,,0.00,Wunderground v.1.15,2013-03-26 02:11:00,
2013-03-25 22:12:00,32.1,27.8,29.75,WNW,294,0.0,10.0,84,0.00,,,0.00,Wunderground v.1.15,2013-03-26 02:12:00,
2013-03-25 22:13:00,32.1,27.8,29.76,WNW,294,0.0,10.0,84,0.00,,,0.00,Wunderground v.1.15,2013-03-26 02:13:00,
2013-03-25 22:16:00,32.1,27.8,29.76,WNW,286,0.0,10.0,84,0.00,,,0.00,Wunderground v.1.15,2013-03-26 02:16:00,
2013-03-25 22:17:00,32.1,27.8,29.76,WNW,286,0.0,10.0,84,0.00,,,0.00,Wunderground v.1.15,2013-03-26 02:17:00,
2013-03-25 22:20:00,32.1,27.8,29.76,WNW,286,0.0,10.0,84,0.00,,,0.00,Wunderground v.1.15,2013-03-26 02:20:00,
2013-03-25 22:22:00,32.1,27.8,29.76,WNW,287,0.0,10.0,84,0.00,,,0.00,Wunderground v.1.15,2013-03-26 02:22:00,
2013-03-25 22:24:00,32.0,27.7,29.76,WNW,286,0.0,10.0,84,0.00,,,0.00,Wunderground v.1.15,2013-03-26 02:24:00,
2013-03-25 22:25:00,32.0,27.7,29.76,WNW,286,0.0,10.0,84,0.00,,,0.00,Wunderground v.1.15,2013-03-26 02:25:00,
2013-03-25 22:27:00,32.0,27.7,29.76,WNW,287,0.0,10.0,84,0.00,,,0.00,Wunderground v.1.15,2013-03-26 02:27:00,
2013-03-25 22:29:00,31.9,27.6,29.76,WNW,286,0.0,10.0,84,0.00,,,0.00,Wunderground v.1.15,2013-03-26 02:29:00,
2013-03-25 22:30:00,31.9,27.6,29.75,WNW,286,0.0,10.0,84,0.00,,,0.00,Wunderground v.1.15,2013-03-26 02:30:00,
2013-03-25 22:31:00,31.9,27.9,29.75,WSW,255,0.0,10.0,85,0.00,,,0.00,Wunderground v.1.15,2013-03-26 02:31:00,
2013-03-25 22:34:00,31.9,27.9,29.76,WSW,255,0.0,10.0,85,0.00,,,0.00,Wunderground v.1.15,2013-03-26 02:34:00,
2013-03-25 22:35:00,31.9,27.9,29.76,WSW,255,0.0,10.0,85,0.00,,,0.00,Wunderground v.1.15,2013-03-26 02:35:00,
2013-03-25 22:37:00,31.9,27.9,29.76,SW,229,0.0,10.0,85,0.00,,,0.00,Wunderground v.1.15,2013-03-26 02:37:00,
2013-03-25 22:39:00,32.0,28.0,29.76,WSW,257,0.0,10.0,85,0.00,,,0.00,Wunderground v.1.15,2013-03-26 02:39:00,
2013-03-25 22:40:00,32.0,28.0,29.76,WSW,257,0.0,10.0,85,0.00,,,0.00,Wunderground v.1.15,2013-03-26 02:40:00,
2013-03-25 22:43:00,32.0,28.0,29.76,WSW,257,0.0,10.0,85,0.00,,,0.00,Wunderground v.1.15,2013-03-26 02:43:00,
2013-03-25 22:45:00,32.0,28.0,29.76,WSW,257,0.0,10.0,85,0.00,,,0.00,Wunderground v.1.15,2013-03-26 02:45:00,
2013-03-25 22:46:00,32.0,28.0,29.76,WSW,257,0.0,10.0,85,0.00,,,0.00,Wunderground v.1.15,2013-03-26 02:46:00,
2013-03-25 22:48:00,32.1,28.1,29.75,WSW,257,0.0,10.0,85,0.00,,,0.00,Wunderground v.1.15,2013-03-26 02:48:00,
2013-03-25 22:49:00,32.1,28.1,29.76,WSW,257,0.0,10.0,85,0.00,,,0.00,Wunderground v.1.15,2013-03-26 02:49:00,
2013-03-25 22:52:00,32.2,28.2,29.76,WSW,257,0.0,10.0,85,0.00,,,0.00,Wunderground v.1.15,2013-03-26 02:52:00,
2013-03-25 22:53:00,32.2,28.2,29.76,WSW,257,0.0,10.0,85,0.00,,,0.00,Wunderground v.1.15,2013-03-26 02:53:00,
2013-03-25 22:54:00,32.1,28.1,29.76,WSW,257,0.0,10.0,85,0.00,,,0.00,Wunderground v.1.15,2013-03-26 02:54:00,
2013-03-25 22:57:00,32.2,28.2,29.76,WSW,257,0.0,10.0,85,0.00,,,0.00,Wunderground v.1.15,2013-03-26 02:57:00,
2013-03-25 22:58:00,32.2,28.2,29.76,WSW,257,0.0,10.0,85,0.00,,,0.00,Wunderground v.1.15,2013-03-26 02:58:00,
2013-03-25 23:02:00,32.2,28.2,29.76,WSW,257,0.0,10.0,85,0.00,,,0.00,Wunderground v.1.15,2013-03-26 03:02:00,
2013-03-25 23:03:00,32.2,28.2,29.76,WSW,257,0.0,10.0,85,0.00,,,0.00,Wunderground v.1.15,2013-03-26 03:03:00,
2013-03-25 23:04:00,32.3,28.3,29.76,WSW,257,0.0,10.0,85,0.00,,,0.00,Wunderground v.1.15,2013-03-26 03:04:00,
2013-03-25 23:05:00,32.3,28.3,29.76,WSW,257,0.0,10.0,85,0.00,,,0.00,Wunderground v.1.15,2013-03-26 03:05:00,
2013-03-25 23:07:00,32.4,28.4,29.76,WSW,257,0.0,10.0,85,0.00,,,0.00,Wunderground v.1.15,2013-03-26 03:07:00,
2013-03-25 23:08:00,32.4,28.4,29.76,WSW,257,0.0,10.0,85,0.00,,,0.00,Wunderground v.1.15,2013-03-26 03:08:00,
2013-03-25 23:10:00,32.4,28.4,29.76,WSW,241,0.0,10.0,85,0.00,,,0.00,Wunderground v.1.15,2013-03-26 03:10:00,
2013-03-25 23:11:00,32.5,28.5,29.76,SW,232,0.0,10.0,85,0.00,,,0.00,Wunderground v.1.15,2013-03-26 03:11:00,
2013-03-25 23:14:00,32.6,28.6,29.76,West,269,0.0,10.0,85,0.00,,,0.00,Wunderground v.1.15,2013-03-26 03:14:00,
2013-03-25 23:18:00,32.7,28.7,29.76,West,269,0.0,10.0,85,0.00,,,0.00,Wunderground v.1.15,2013-03-26 03:18:00,
2013-03-25 23:20:00,32.8,28.8,29.76,WSW,243,0.0,10.0,85,0.00,,,0.00,Wunderground v.1.15,2013-03-26 03:20:00,
2013-03-25 23:23:00,32.8,28.8,29.76,WSW,243,0.0,10.0,85,0.00,,,0.00,Wunderground v.1.15,2013-03-26 03:23:00,
2013-03-25 23:24:00,32.8,28.8,29.76,WSW,243,0.0,10.0,85,0.00,,,0.00,Wunderground v.1.15,2013-03-26 03:24:00,
2013-03-25 23:25:00,32.8,28.8,29.76,WSW,243,0.0,10.0,85,0.00,,,0.00,Wunderground v.1.15,2013-03-26 03:25:00,
2013-03-25 23:26:00,32.8,28.8,29.76,WSW,243,0.0,10.0,85,0.00,,,0.00,Wunderground v.1.15,2013-03-26 03:26:00,
2013-03-25 23:30:00,32.9,28.9,29.76,WSW,243,0.0,10.0,85,0.00,,,0.00,Wunderground v.1.15,2013-03-26 03:30:00,
2013-03-25 23:32:00,33.0,29.0,29.76,WSW,243,0.0,10.0,85,0.00,,,0.00,Wunderground v.1.15,2013-03-26 03:32:00,
2013-03-25 23:34:00,33.1,29.1,29.76,West,270,0.0,10.0,85,0.00,,,0.00,Wunderground v.1.15,2013-03-26 03:34:00,
2013-03-25 23:37:00,33.2,29.2,29.76,West,270,0.0,10.0,85,0.00,,,0.00,Wunderground v.1.15,2013-03-26 03:37:00,
2013-03-25 23:38:00,33.2,29.2,29.76,West,270,0.0,10.0,85,0.00,,,0.00,Wunderground v.1.15,2013-03-26 03:38:00,
2013-03-25 23:39:00,33.3,29.3,29.76,West,274,0.0,10.0,85,0.00,,,0.00,Wunderground v.1.15,2013-03-26 03:39:00,
2013-03-25 23:40:00,33.3,29.3,29.76,West,274,0.0,10.0,85,0.00,,,0.00,Wunderground v.1.15,2013-03-26 03:40:00,
2013-03-25 23:44:00,33.4,29.1,29.76,West,273,0.0,10.0,84,0.00,,,0.00,Wunderground v.1.15,2013-03-26 03:44:00,
2013-03-25 23:45:00,33.4,29.1,29.76,West,273,0.0,10.0,84,0.00,,,0.00,Wunderground v.1.15,2013-03-26 03:45:00,
2013-03-25 23:46:00,33.5,29.2,29.76,West,259,0.0,10.0,84,0.00,,,0.00,Wunderground v.1.15,2013-03-26 03:46:00,
2013-03-25 23:51:00,33.5,29.2,29.76,West,260,0.0,10.0,84,0.00,,,0.00,Wunderground v.1.15,2013-03-26 03:51:00,
2013-03-25 23:52:00,33.4,29.1,29.76,West,260,0.0,10.0,84,0.00,,,0.00,Wunderground v.1.15,2013-03-26 03:52:00,
2013-03-25 23:53:00,33.4,29.1,29.76,West,259,0.0,10.0,84,0.00,,,0.00,Wunderground v.1.15,2013-03-26 03:53:00,
2013-03-25 23:57:00,33.4,29.1,29.76,West,260,0.0,10.0,84,0.00,,,0.00,Wunderground v.1.15,2013-03-26 03:57:00,
2013-03-25 23:58:00,33.3,29.0,29.76,West,260,0.0,10.0,84,0.00,,,0.00,Wunderground v.1.15,2013-03-26 03:58:00,